CW3318 Weather Reports


Display with metric or nautical units.
time (UTC)temp
F
wind
direction
speed
MPH
gust
MPH
rain 1hr
in
rain 24hr
in
rain mn
in
humidity
%
barometer
mb
20260506212400 85 233 12.0 18.0 0.00 0.00 0.00 26 1010.8
20260506212237 85 263 11.0 18.0 0.00 0.00 0.00 27 1010.8
20260506212115 85 258 12.0 18.0 0.00 0.00 0.00 27 1010.8
20260506212020 85 240 12.0 18.0 0.00 0.00 0.00 27 1010.8
20260506211945 85 264 12.0 18.0 0.00 0.00 0.00 26 1010.8
20260506211819 85 273 10.0 18.0 0.00 0.00 0.00 26 1010.8
20260506211718 85 280 9.0 18.0 0.00 0.00 0.00 25 1010.9
20260506211643 85 298 11.0 18.0 0.00 0.00 0.00 26 1010.9
20260506211529 84 258 10.0 18.0 0.00 0.00 0.00 27 1010.9
20260506211425 84 238 8.0 14.0 0.00 0.00 0.00 25 1010.9
20260506211324 84 285 9.0 12.0 0.00 0.00 0.00 25 1010.8
20260506211230 84 257 8.0 12.0 0.00 0.00 0.00 25 1010.8
20260506211129 84 138 6.0 12.0 0.00 0.00 0.00 24 1010.7
20260506211033 84 309 6.0 9.0 0.00 0.00 0.00 24 1010.8
20260506210931 84 277 6.0 9.0 0.00 0.00 0.00 25 1010.8
20260506210828 83 274 4.0 8.0 0.00 0.00 0.00 26 1010.9
20260506210721 83 283 3.0 9.0 0.00 0.00 0.00 24 1010.8
20260506210616 83 314 2.0 9.0 0.00 0.00 0.00 24 1010.9
20260506210514 83 314 3.0 9.0 0.00 0.00 0.00 24 1010.9
20260506210440 83 314 3.0 9.0 0.00 0.00 0.00 24 1010.9
20260506210326 83 302 2.0 9.0 0.00 0.00 0.00 25 1010.9
20260506210222 83 283 1.0 9.0 0.00 0.00 0.00 25 1010.9
20260506210118 83 286 3.0 9.0 0.00 0.00 0.00 24 1011.0
20260506210028 83 286 5.0 9.0 0.00 0.00 0.00 24 1011.0
20260506205926 83 316 6.0 9.0 0.00 0.00 0.00 24 1011.0
20260506205832 83 291 5.0 9.0 0.00 0.00 0.00 24 1010.9
20260506205731 83 318 4.0 9.0 0.00 0.00 0.00 24 1010.9
20260506205615 83 5 5.0 9.0 0.00 0.00 0.00 25 1011.0
20260506205531 83 29 6.0 9.0 0.00 0.00 0.00 25 1011.0
20260506205436 83 5 6.0 9.0 0.00 0.00 0.00 25 1010.9
20260506205317 83 356 6.0 9.0 0.00 0.00 0.00 25 1011.0
20260506205216 84 15 6.0 9.0 0.00 0.00 0.00 25 1010.9
20260506205121 84 354 5.0 9.0 0.00 0.00 0.00 26 1011.0
20260506205017 84 354 5.0 8.0 0.00 0.00 0.00 25 1010.9
20260506204923 84 5 5.0 9.0 0.00 0.00 0.00 25 1010.9
20260506204850 84 19 4.0 10.0 0.00 0.00 0.00 25 1010.9
20260506204726 84 10 3.0 10.0 0.00 0.00 0.00 25 1010.9
20260506204625 84 25 2.0 10.0 0.00 0.00 0.00 25 1010.9
20260506204529 84 5 2.0 10.0 0.00 0.00 0.00 24 1010.9
20260506204455 84 5 2.0 10.0 0.00 0.00 0.00 24 1010.9
20260506204351 84 60 2.0 10.0 0.00 0.00 0.00 24 1010.9
20260506204238 84 53 4.0 10.0 0.00 0.00 0.00 24 1011.0
20260506204113 84 50 6.0 10.0 0.00 0.00 0.00 24 1011.0
20260506204019 84 40 6.0 10.0 0.00 0.00 0.00 24 1011.0
20260506203921 84 360 6.0 10.0 0.00 0.00 0.00 24 1011.0
20260506203818 84 5 4.0 8.0 0.00 0.00 0.00 24 1011.0
20260506203721 85 344 3.0 12.0 0.00 0.00 0.00 23 1011.1
20260506203617 85 308 4.0 15.0 0.00 0.00 0.00 23 1011.1
20260506203521 85 315 3.0 15.0 0.00 0.00 0.00 23 1011.1
20260506203419 85 299 2.0 15.0 0.00 0.00 0.00 23 1011.1
20260506203325 85 180 2.0 15.0 0.00 0.00 0.00 24 1011.1
20260506203226 85 259 3.0 15.0 0.00 0.00 0.00 24 1011.1
20260506203134 85 263 5.0 15.0 0.00 0.00 0.00 24 1011.2
20260506203028 85 273 8.0 15.0 0.00 0.00 0.00 24 1011.2
20260506202935 85 251 7.0 15.0 0.00 0.00 0.00 24 1011.2
20260506202832 85 275 6.0 15.0 0.00 0.00 0.00 24 1011.2
20260506202739 85 267 6.0 10.0 0.00 0.00 0.00 24 1011.2
20260506202614 85 239 4.0 10.0 0.00 0.00 0.00 26 1011.2
20260506202520 85 238 3.0 12.0 0.00 0.00 0.00 24 1011.2
20260506202421 85 233 5.0 16.0 0.00 0.00 0.00 25 1011.2
20260506202328 85 233 6.0 16.0 0.00 0.00 0.00 24 1011.2
20260506202223 85 227 6.0 16.0 0.00 0.00 0.00 24 1011.2
20260506202133 85 221 5.0 16.0 0.00 0.00 0.00 24 1011.2
20260506202026 85 232 7.0 16.0 0.00 0.00 0.00 25 1011.2
20260506201952 85 237 8.0 16.0 0.00 0.00 0.00 24 1011.2
20260506201828 85 248 8.0 16.0 0.00 0.00 0.00 24 1011.1
20260506201758 85 243 10.0 16.0 0.00 0.00 0.00 25 1011.2
20260506201644 85 273 10.0 16.0 0.00 0.00 0.00 25 1011.1
20260506201520 85 276 4.0 13.0 0.00 0.00 0.00 25 1011.1
20260506201424 85 215 3.0 14.0 0.00 0.00 0.00 25 1011.2
20260506201319 85 203 6.0 15.0 0.00 0.00 0.00 25 1011.2
20260506201217 85 229 5.0 15.0 0.00 0.00 0.00 25 1011.2
20260506201120 85 241 4.0 15.0 0.00 0.00 0.00 25 1011.2
20260506201021 85 254 6.0 15.0 0.00 0.00 0.00 26 1011.2
20260506200945 84 235 7.0 15.0 0.00 0.00 0.00 25 1011.2
20260506200820 84 231 8.0 15.0 0.00 0.00 0.00 25 1011.2
20260506200727 84 244 8.0 15.0 0.00 0.00 0.00 25 1011.2
20260506200621 84 246 9.0 15.0 0.00 0.00 0.00 25 1011.2
20260506200527 84 258 9.0 15.0 0.00 0.00 0.00 26 1011.2
20260506200424 84 231 6.0 15.0 0.00 0.00 0.00 27 1011.2
20260506200327 84 232 4.0 14.0 0.00 0.00 0.00 26 1011.2
20260506200229 84 275 5.0 14.0 0.00 0.00 0.00 26 1011.2
20260506200136 83 227 7.0 14.0 0.00 0.00 0.00 26 1011.2
20260506200032 83 247 9.0 14.0 0.00 0.00 0.00 26 1011.2
20260506195959 83 244 9.0 14.0 0.00 0.00 0.00 26 1011.2
20260506195815 83 265 7.0 14.0 0.00 0.00 0.00 26 1011.2
20260506195715 83 250 7.0 11.0 0.00 0.00 0.00 27 1011.2
20260506195617 83 262 6.0 10.0 0.00 0.00 0.00 28 1011.2
20260506195529 83 263 3.0 9.0 0.00 0.00 0.00 28 1011.2
20260506195444 83 206 1.0 8.0 0.00 0.00 0.00 28 1011.2
20260506195326 82 206 2.0 8.0 0.00 0.00 0.00 28 1011.2
20260506195224 82 259 3.0 8.0 0.00 0.00 0.00 28 1011.2
20260506195131 82 260 4.0 8.0 0.00 0.00 0.00 29 1011.2
20260506195027 82 257 5.0 8.0 0.00 0.00 0.00 28 1011.3
20260506194932 82 269 5.0 8.0 0.00 0.00 0.00 28 1011.3
20260506194827 82 243 4.0 7.0 0.00 0.00 0.00 29 1011.3
20260506194737 81 271 4.0 7.0 0.00 0.00 0.00 29 1011.3
20260506194644 81 244 5.0 7.0 0.00 0.00 0.00 29 1011.3
20260506194539 81 242 4.0 7.0 0.00 0.00 0.00 29 1011.3
20260506194424 81 250 4.0 9.0 0.00 0.00 0.00 30 1011.3
20260506194340 81 143 4.0 10.0 0.00 0.00 0.00 30 1011.3
20260506194225 81 137 4.0 10.0 0.00 0.00 0.00 30 1011.4
20260506194119 81 133 5.0 10.0 0.00 0.00 0.00 30 1011.4
20260506194029 81 160 5.0 10.0 0.00 0.00 0.00 29 1011.4
20260506193926 81 169 4.0 10.0 0.00 0.00 0.00 29 1011.3
20260506193822 81 134 4.0 10.0 0.00 0.00 0.00 29 1011.4
20260506193729 81 134 5.0 10.0 0.00 0.00 0.00 29 1011.4
20260506193629 81 126 6.0 10.0 0.00 0.00 0.00 30 1011.4
20260506193534 81 127 6.0 10.0 0.00 0.00 0.00 30 1011.4
20260506193414 81 92 4.0 8.0 0.00 0.00 0.00 31 1011.5
20260506193330 81 130 3.0 8.0 0.00 0.00 0.00 31 1011.5
20260506193215 81 135 3.0 8.0 0.00 0.00 0.00 31 1011.5
20260506193142 81 135 4.0 8.0 0.00 0.00 0.00 32 1011.5
20260506193018 80 131 5.0 7.0 0.00 0.00 0.00 31 1011.5
20260506192915 80 161 3.0 7.0 0.00 0.00 0.00 31 1011.6
20260506192841 80 160 3.0 7.0 0.00 0.00 0.00 30 1011.6
20260506192723 80 193 3.0 6.0 0.00 0.00 0.00 31 1011.6
20260506192651 80 193 3.0 6.0 0.00 0.00 0.00 31 1011.6
20260506192525 80 179 2.0 6.0 0.00 0.00 0.00 31 1011.7
20260506192451 80 33 1.0 5.0 0.00 0.00 0.00 30 1011.7
20260506192328 80 33 2.0 5.0 0.00 0.00 0.00 30 1011.7
20260506192235 80 33 2.0 5.0 0.00 0.00 0.00 31 1011.7
20260506192133 80 92 2.0 5.0 0.00 0.00 0.00 31 1011.7
20260506192027 80 92 3.0 5.0 0.00 0.00 0.00 31 1011.8
20260506191936 80 92 3.0 5.0 0.00 0.00 0.00 32 1011.8
20260506191840 80 277 1.0 6.0 0.00 0.00 0.00 32 1011.8
20260506191719 80 275 1.0 6.0 0.00 0.00 0.00 32 1011.8
20260506191614 80 275 2.0 7.0 0.00 0.00 0.00 31 1011.8
20260506191521 80 275 1.0 8.0 0.00 0.00 0.00 31 1011.9
20260506191321 80 181 2.0 9.0 0.00 0.00 0.00 31 1011.9
20260506191226 80 181 3.0 9.0 0.00 0.00 0.00 31 1011.9
20260506191132 80 181 3.0 9.0 0.00 0.00 0.00 31 1011.9
20260506191027 80 251 2.0 9.0 0.00 0.00 0.00 31 1011.9
20260506190924 80 270 3.0 9.0 0.00 0.00 0.00 31 1011.9
20260506190831 80 278 5.0 9.0 0.00 0.00 0.00 30 1011.9
20260506190800 80 287 6.0 9.0 0.00 0.00 0.00 31 1011.9
20260506190620 80 256 5.0 9.0 0.00 0.00 0.00 31 1012.0
20260506190515 80 289 5.0 8.0 0.00 0.00 0.00 30 1011.9
20260506190422 80 306 6.0 9.0 0.00 0.00 0.00 30 1011.9
20260506190320 80 307 5.0 9.0 0.00 0.00 0.00 30 1012.0
20260506190227 80 308 4.0 9.0 0.00 0.00 0.00 30 1012.0
20260506190119 80 331 3.0 9.0 0.00 0.00 0.00 30 1012.0
20260506190024 80 331 4.0 9.0 0.00 0.00 0.00 30 1012.1
20260506185926 80 328 4.0 9.0 0.00 0.00 0.00 30 1012.1
20260506185832 80 316 4.0 10.0 0.00 0.00 0.00 30 1012.1
20260506185729 80 298 4.0 10.0 0.00 0.00 0.00 30 1012.1
20260506185635 80 319 5.0 10.0 0.00 0.00 0.00 30 1012.0
20260506185531 80 304 5.0 10.0 0.00 0.00 0.00 30 1012.1
20260506185437 80 262 4.0 10.0 0.00 0.00 0.00 30 1012.1
20260506185334 80 275 2.0 10.0 0.00 0.00 0.00 31 1012.0
20260506185237 79 210 2.0 10.0 0.00 0.00 0.00 31 1012.0
20260506185136 79 188 5.0 10.0 0.00 0.00 0.00 30 1012.1
20260506185020 79 150 6.0 10.0 0.00 0.00 0.00 31 1012.1
20260506184918 79 167 2.0 8.0 0.00 0.00 0.00 31 1012.1
20260506184815 79 265 1.0 6.0 0.00 0.00 0.00 32 1012.0
20260506184721 79 265 1.0 6.0 0.00 0.00 0.00 34 1012.1
20260506184616 79 314 0.0 8.0 0.00 0.00 0.00 34 1012.0
20260506184520 78 313 1.0 9.0 0.00 0.00 0.00 33 1012.1
20260506184422 78 313 1.0 9.0 0.00 0.00 0.00 32 1012.1
20260506184347 78 313 2.0 9.0 0.00 0.00 0.00 32 1012.1
20260506184232 78 313 2.0 9.0 0.00 0.00 0.00 33 1012.1
20260506184130 78 313 3.0 9.0 0.00 0.00 0.00 33 1012.1
20260506184024 78 348 5.0 9.0 0.00 0.00 0.00 32 1012.2
20260506183929 78 347 5.0 9.0 0.00 0.00 0.00 32 1012.2
20260506183826 78 299 5.0 9.0 0.00 0.00 0.00 32 1012.2
20260506183739 78 299 6.0 9.0 0.00 0.00 0.00 32 1012.2
20260506183615 78 311 5.0 9.0 0.00 0.00 0.00 32 1012.2
20260506183513 78 288 6.0 9.0 0.00 0.00 0.00 32 1012.3
20260506183418 78 287 5.0 9.0 0.00 0.00 0.00 31 1012.2
20260506183314 78 289 4.0 9.0 0.00 0.00 0.00 31 1012.2
20260506183222 78 304 3.0 7.0 0.00 0.00 0.00 32 1012.2
20260506183122 78 305 2.0 8.0 0.00 0.00 0.00 32 1012.2
20260506183028 78 163 3.0 8.0 0.00 0.00 0.00 32 1012.2
20260506182924 78 163 4.0 8.0 0.00 0.00 0.00 32 1012.1
20260506182820 78 190 3.0 8.0 0.00 0.00 0.00 33 1012.1
20260506182726 78 182 2.0 8.0 0.00 0.00 0.00 32 1012.1
20260506182622 78 250 2.0 8.0 0.00 0.00 0.00 31 1012.2
20260506182529 79 250 3.0 8.0 0.00 0.00 0.00 31 1012.2
20260506182431 78 251 5.0 8.0 0.00 0.00 0.00 32 1012.2
20260506182329 78 252 6.0 8.0 0.00 0.00 0.00 33 1012.2
20260506182234 78 242 4.0 8.0 0.00 0.00 0.00 34 1012.2
20260506182202 78 231 2.0 6.0 0.00 0.00 0.00 33 1012.2
20260506182037 78 274 2.0 6.0 0.00 0.00 0.00 33 1012.2
20260506181913 78 274 1.0 6.0 0.00 0.00 0.00 34 1012.3
20260506181841 78 242 1.0 6.0 0.00 0.00 0.00 33 1012.3
20260506181747 78 242 2.0 8.0 0.00 0.00 0.00 35 1012.3
20260506181624 78 242 2.0 8.0 0.00 0.00 0.00 33 1012.4
20260506181529 78 243 3.0 8.0 0.00 0.00 0.00 33 1012.4
20260506181435 78 244 4.0 8.0 0.00 0.00 0.00 34 1012.3
20260506181313 78 244 3.0 8.0 0.00 0.00 0.00 34 1012.4
20260506181243 78 260 3.0 8.0 0.00 0.00 0.00 34 1012.4
20260506181116 78 264 3.0 8.0 0.00 0.00 0.00 35 1012.4
20260506181017 77 264 4.0 8.0 0.00 0.00 0.00 35 1012.4
20260506180943 77 270 5.0 8.0 0.00 0.00 0.00 36 1012.4
20260506180820 77 233 4.0 8.0 0.00 0.00 0.00 35 1012.5
20260506180749 77 204 4.0 8.0 0.00 0.00 0.00 34 1012.5
20260506180623 77 258 4.0 8.0 0.00 0.00 0.00 34 1012.5
20260506180527 77 262 5.0 8.0 0.00 0.00 0.00 35 1012.5
20260506180453 77 262 5.0 9.0 0.00 0.00 0.00 35 1012.5
20260506180329 77 210 4.0 9.0 0.00 0.00 0.00 35 1012.4
20260506180217 77 212 3.0 9.0 0.00 0.00 0.00 35 1012.5
20260506180117 77 214 1.0 9.0 0.00 0.00 0.00 36 1012.5
20260506180024 77 220 1.0 9.0 0.00 0.00 0.00 35 1012.5
20260506175920 76 224 1.0 9.0 0.00 0.00 0.00 36 1012.5
20260506175818 76 224 1.0 9.0 0.00 0.00 0.00 39 1012.5
20260506175727 76 223 4.0 9.0 0.00 0.00 0.00 37 1012.5
20260506175623 76 223 5.0 9.0 0.00 0.00 0.00 38 1012.4
20260506175534 76 223 5.0 9.0 0.00 0.00 0.00 38 1012.4
20260506175451 75 207 3.0 6.0 0.00 0.00 0.00 38 1012.4
20260506175336 75 219 3.0 5.0 0.00 0.00 0.00 38 1012.4
20260506175214 75 215 2.0 5.0 0.00 0.00 0.00 40 1012.4
20260506175142 75 180 2.0 6.0 0.00 0.00 0.00 38 1012.4
20260506175018 75 179 2.0 7.0 0.00 0.00 0.00 39 1012.5
20260506174915 74 179 1.0 7.0 0.00 0.00 0.00 39 1012.5
20260506174826 74 177 1.0 7.0 0.00 0.00 0.00 39 1012.5
20260506174743 74 177 2.0 7.0 0.00 0.00 0.00 38 1012.6
20260506174629 74 177 3.0 7.0 0.00 0.00 0.00 38 1012.6
20260506174521 74 194 3.0 7.0 0.00 0.00 0.00 38 1012.4
20260506174446 74 194 4.0 7.0 0.00 0.00 0.00 38 1012.4
20260506174350 74 195 4.0 7.0 0.00 0.00 0.00 37 1012.4
20260506174229 74 170 3.0 7.0 0.00 0.00 0.00 38 1012.4
20260506174123 74 198 2.0 6.0 0.00 0.00 0.00 38 1012.4
20260506174013 74 198 3.0 6.0 0.00 0.00 0.00 39 1012.5
20260506173931 74 212 3.0 7.0 0.00 0.00 0.00 38 1012.5
20260506173836 74 229 2.0 7.0 0.00 0.00 0.00 39 1012.5
20260506173714 74 231 1.0 7.0 0.00 0.00 0.00 38 1012.5
20260506173643 74 264 2.0 7.0 0.00 0.00 0.00 38 1012.5
20260506173518 74 263 3.0 7.0 0.00 0.00 0.00 39 1012.5
20260506173420 74 245 2.0 5.0 0.00 0.00 0.00 39 1012.5
20260506173316 74 215 1.0 6.0 0.00 0.00 0.00 39 1012.5
20260506173225 73 212 0.0 6.0 0.00 0.00 0.00 38 1012.5
20260506173121 73 212 1.0 6.0 0.00 0.00 0.00 39 1012.5
20260506173027 73 212 2.0 6.0 0.00 0.00 0.00 39 1012.5
20260506172925 73 212 3.0 6.0 0.00 0.00 0.00 40 1012.5
20260506172835 73 211 3.0 6.0 0.00 0.00 0.00 40 1012.5
20260506172714 73 214 4.0 6.0 0.00 0.00 0.00 39 1012.5
20260506172633 73 214 3.0 6.0 0.00 0.00 0.00 39 1012.5
20260506172535 73 214 3.0 7.0 0.00 0.00 0.00 39 1012.5
20260506172431 73 181 4.0 7.0 0.00 0.00 0.00 40 1012.4
20260506172338 73 181 3.0 7.0 0.00 0.00 0.00 40 1012.5
20260506172222 73 178 3.0 7.0 0.00 0.00 0.00 40 1012.5
20260506172117 73 177 2.0 7.0 0.00 0.00 0.00 41 1012.5
20260506172024 73 178 1.0 7.0 0.00 0.00 0.00 41 1012.5
20260506171917 73 177 3.0 7.0 0.00 0.00 0.00 41 1012.6
20260506171813 72 177 5.0 7.0 0.00 0.00 0.00 41 1012.6
20260506171719 72 177 3.0 7.0 0.00 0.00 0.00 43 1012.6
20260506171645 72 180 1.0 6.0 0.00 0.00 0.00 42 1012.6
20260506171525 72 120 0.0 6.0 0.00 0.00 0.00 42 1012.6
20260506171423 72 120 1.0 6.0 0.00 0.00 0.00 43 1012.6
20260506171329 72 120 1.0 6.0 0.00 0.00 0.00 42 1012.6
20260506171224 72 120 2.0 6.0 0.00 0.00 0.00 43 1012.6
20260506171132 72 120 3.0 6.0 0.00 0.00 0.00 42 1012.6
20260506171027 72 120 3.0 7.0 0.00 0.00 0.00 43 1012.6
20260506170923 72 121 3.0 8.0 0.00 0.00 0.00 44 1012.5
20260506170813 72 121 3.0 8.0 0.00 0.00 0.00 44 1012.5
20260506170730 71 125 2.0 9.0 0.00 0.00 0.00 44 1012.5
20260506170638 71 127 2.0 9.0 0.00 0.00 0.00 45 1012.5
20260506170514 71 125 1.0 9.0 0.00 0.00 0.00 44 1012.5
20260506170441 71 125 2.0 9.0 0.00 0.00 0.00 44 1012.5
20260506170338 71 126 4.0 9.0 0.00 0.00 0.00 44 1012.5
20260506170223 71 127 5.0 9.0 0.00 0.00 0.00 44 1012.5
20260506170122 71 129 5.0 9.0 0.00 0.00 0.00 44 1012.5
20260506170029 71 151 5.0 9.0 0.00 0.00 0.00 44 1012.5
20260506165927 71 167 5.0 9.0 0.00 0.00 0.00 44 1012.5
20260506165824 71 172 3.0 8.0 0.00 0.00 0.00 45 1012.5
20260506165752 71 177 3.0 6.0 0.00 0.00 0.00 45 1012.5
20260506165615 71 177 4.0 6.0 0.00 0.00 0.00 46 1012.5
20260506165531 71 178 4.0 6.0 0.00 0.00 0.00 45 1012.5
20260506165442 71 235 2.0 6.0 0.00 0.00 0.00 46 1012.6
20260506165347 71 234 2.0 4.0 0.00 0.00 0.00 46 1012.6
20260506165224 70 233 1.0 4.0 0.00 0.00 0.00 47 1012.6
20260506165134 70 233 1.0 4.0 0.00 0.00 0.00 47 1012.6
20260506165028 70 233 2.0 4.0 0.00 0.00 0.00 48 1012.6
20260506164926 70 233 2.0 4.0 0.00 0.00 0.00 47 1012.6
20260506164831 70 233 2.0 4.0 0.00 0.00 0.00 47 1012.6
20260506164733 69 233 2.0 5.0 0.00 0.00 0.00 48 1012.6
20260506164636 69 234 2.0 5.0 0.00 0.00 0.00 48 1012.6
20260506164532 69 234 2.0 5.0 0.00 0.00 0.00 49 1012.6
20260506164438 69 234 2.0 5.0 0.00 0.00 0.00 50 1012.6
20260506164314 69 235 1.0 5.0 0.00 0.00 0.00 48 1012.6
20260506164243 69 235 1.0 5.0 0.00 0.00 0.00 48 1012.6
20260506164117 69 235 3.0 5.0 0.00 0.00 0.00 49 1012.6
20260506164022 68 235 3.0 5.0 0.00 0.00 0.00 49 1012.6
20260506163922 68 235 2.0 5.0 0.00 0.00 0.00 49 1012.6
20260506163827 68 234 1.0 5.0 0.00 0.00 0.00 49 1012.6
20260506163725 68 207 1.0 5.0 0.00 0.00 0.00 50 1012.6
20260506163632 68 207 1.0 5.0 0.00 0.00 0.00 51 1012.6
20260506163528 68 207 2.0 5.0 0.00 0.00 0.00 50 1012.6
20260506163455 68 207 3.0 5.0 0.00 0.00 0.00 50 1012.6
20260506163339 68 206 3.0 5.0 0.00 0.00 0.00 51 1012.6
20260506163221 67 206 2.0 5.0 0.00 0.00 0.00 51 1012.6
20260506163146 67 206 2.0 5.0 0.00 0.00 0.00 50 1012.6
20260506163023 67 206 3.0 5.0 0.00 0.00 0.00 51 1012.6
20260506162920 67 206 2.0 5.0 0.00 0.00 0.00 52 1012.6
20260506162847 67 212 2.0 5.0 0.00 0.00 0.00 51 1012.6
20260506162753 67 213 2.0 5.0 0.00 0.00 0.00 52 1012.6
20260506162631 67 213 1.0 5.0 0.00 0.00 0.00 52 1012.7
20260506162515 67 166 0.0 5.0 0.00 0.00 0.00 52 1012.7
20260506162415 67 165 1.0 5.0 0.00 0.00 0.00 52 1012.7
20260506162319 66 165 2.0 5.0 0.00 0.00 0.00 53 1012.7
20260506162238 66 165 2.0 5.0 0.00 0.00 0.00 53 1012.7
20260506162121 66 165 1.0 5.0 0.00 0.00 0.00 53 1012.7
20260506162047 66 165 1.0 5.0 0.00 0.00 0.00 53 1012.7
20260506161923 66 165 2.0 5.0 0.00 0.00 0.00 53 1012.6
20260506161849 66 165 2.0 5.0 0.00 0.00 0.00 54 1012.6
20260506161727 66 165 2.0 5.0 0.00 0.00 0.00 54 1012.7
20260506161634 65 165 1.0 4.0 0.00 0.00 0.00 54 1012.8
20260506161531 65 204 1.0 4.0 0.00 0.00 0.00 54 1012.8
20260506161414 65 205 1.0 4.0 0.00 0.00 0.00 54 1012.7
20260506161336 65 205 1.0 4.0 0.00 0.00 0.00 55 1012.7
20260506161232 65 205 1.0 4.0 0.00 0.00 0.00 55 1012.8
20260506161132 65 205 1.0 4.0 0.00 0.00 0.00 55 1012.8
20260506161036 65 205 1.0 4.0 0.00 0.00 0.00 55 1012.8
20260506161002 65 205 2.0 6.0 0.00 0.00 0.00 55 1012.8
20260506160820 64 205 3.0 6.0 0.00 0.00 0.00 56 1012.8
20260506160717 64 205 3.0 6.0 0.00 0.00 0.00 57 1012.8
20260506160619 64 200 2.0 6.0 0.00 0.00 0.00 56 1012.8
20260506160546 64 187 2.0 7.0 0.00 0.00 0.00 57 1012.8
20260506160422 64 173 2.0 7.0 0.00 0.00 0.00 57 1012.8
20260506160320 64 173 2.0 7.0 0.00 0.00 0.00 57 1012.8
20260506160226 63 172 3.0 7.0 0.00 0.00 0.00 58 1012.8
20260506160129 63 172 4.0 7.0 0.00 0.00 0.00 59 1012.8
20260506160032 63 171 4.0 7.0 0.00 0.00 0.00 59 1012.8
20260506155928 63 170 4.0 7.0 0.00 0.00 0.00 58 1012.7
20260506155853 63 170 4.0 7.0 0.00 0.00 0.00 59 1012.7
20260506155758 63 171 3.0 7.0 0.00 0.00 0.00 60 1012.8
20260506155651 62 170 2.0 5.0 0.00 0.00 0.00 60 1012.8
20260506155534 62 170 2.0 5.0 0.00 0.00 0.00 59 1012.7
20260506155500 62 170 2.0 7.0 0.00 0.00 0.00 59 1012.7
20260506155319 62 168 3.0 7.0 0.00 0.00 0.00 60 1012.7
20260506155218 62 168 2.0 7.0 0.00 0.00 0.00 60 1012.6
20260506155114 62 168 2.0 7.0 0.00 0.00 0.00 60 1012.7
20260506155039 62 169 1.0 7.0 0.00 0.00 0.00 60 1012.7
20260506154923 61 168 1.0 7.0 0.00 0.00 0.00 60 1012.7
20260506154820 61 168 2.0 7.0 0.00 0.00 0.00 61 1012.7
20260506154726 61 167 4.0 7.0 0.00 0.00 0.00 61 1012.7
20260506154619 61 166 3.0 7.0 0.00 0.00 0.00 62 1012.7
20260506154549 61 166 2.0 6.0 0.00 0.00 0.00 62 1012.7
20260506154426 61 212 2.0 4.0 0.00 0.00 0.00 62 1012.7
20260506154332 61 212 2.0 4.0 0.00 0.00 0.00 62 1012.6
20260506154230 60 212 1.0 5.0 0.00 0.00 0.00 62 1012.6
20260506154139 60 211 1.0 5.0 0.00 0.00 0.00 62 1012.7
20260506154013 60 211 2.0 6.0 0.00 0.00 0.00 62 1012.7
20260506153914 60 212 2.0 6.0 0.00 0.00 0.00 63 1012.7
20260506153819 60 212 2.0 6.0 0.00 0.00 0.00 64 1012.7
20260506153718 60 212 2.0 6.0 0.00 0.00 0.00 63 1012.8
20260506153614 60 212 3.0 6.0 0.00 0.00 0.00 63 1012.8
20260506153521 60 212 3.0 6.0 0.00 0.00 0.00 64 1012.8
20260506153419 59 212 3.0 6.0 0.00 0.00 0.00 64 1012.8
20260506153325 59 212 2.0 6.0 0.00 0.00 0.00 64 1012.8
20260506153227 59 211 4.0 6.0 0.00 0.00 0.00 64 1012.8
20260506153121 59 211 4.0 6.0 0.00 0.00 0.00 64 1012.7
20260506153026 59 220 4.0 6.0 0.00 0.00 0.00 65 1012.7
20260506152951 59 221 4.0 6.0 0.00 0.00 0.00 65 1012.8
20260506152828 59 221 5.0 6.0 0.00 0.00 0.00 66 1012.8
20260506152734 58 219 4.0 6.0 0.00 0.00 0.00 65 1012.8
20260506152639 58 217 3.0 6.0 0.00 0.00 0.00 66 1012.8
20260506152517 58 217 3.0 7.0 0.00 0.00 0.00 67 1012.8
20260506152415 58 217 3.0 7.0 0.00 0.00 0.00 66 1012.8
20260506152341 58 216 3.0 7.0 0.00 0.00 0.00 66 1012.8
20260506152220 58 217 3.0 7.0 0.00 0.00 0.00 68 1012.8
20260506152115 57 215 3.0 7.0 0.00 0.00 0.00 68 1012.8
20260506152042 57 215 4.0 7.0 0.00 0.00 0.00 68 1012.8
20260506151918 57 212 4.0 7.0 0.00 0.00 0.00 68 1012.8
20260506151827 57 212 4.0 7.0 0.00 0.00 0.00 68 1012.8
20260506151724 57 223 4.0 7.0 0.00 0.00 0.00 69 1012.8
20260506151633 56 223 4.0 7.0 0.00 0.00 0.00 69 1012.8
20260506151524 56 223 3.0 7.0 0.00 0.00 0.00 69 1012.8
20260506151449 56 223 4.0 7.0 0.00 0.00 0.00 70 1012.8
20260506151334 56 225 4.0 7.0 0.00 0.00 0.00 70 1012.8
20260506151231 56 225 4.0 7.0 0.00 0.00 0.00 71 1012.8
20260506151126 55 225 4.0 7.0 0.00 0.00 0.00 72 1012.7
20260506151017 55 217 3.0 5.0 0.00 0.00 0.00 72 1012.7
20260506150914 55 216 3.0 7.0 0.00 0.00 0.00 73 1012.7
20260506150841 55 215 3.0 7.0 0.00 0.00 0.00 73 1012.7
20260506150721 54 210 3.0 8.0 0.00 0.00 0.00 73 1012.7
20260506150624 54 200 3.0 8.0 0.00 0.00 0.00 73 1012.7
20260506150520 54 210 3.0 8.0 0.00 0.00 0.00 74 1012.7
20260506150421 54 210 2.0 8.0 0.00 0.00 0.00 74 1012.6
20260506150327 54 184 2.0 8.0 0.00 0.00 0.00 74 1012.6
20260506150253 53 181 4.0 8.0 0.00 0.00 0.00 74 1012.6
20260506150132 53 199 5.0 8.0 0.00 0.00 0.00 75 1012.7
20260506150025 53 179 5.0 8.0 0.00 0.00 0.00 75 1012.7
20260506145931 53 188 3.0 8.0 0.00 0.00 0.00 76 1012.7
20260506145858 53 160 2.0 8.0 0.00 0.00 0.00 76 1012.7
20260506145718 52 160 3.0 8.0 0.00 0.00 0.00 76 1012.6
20260506145633 52 160 4.0 8.0 0.00 0.00 0.00 76 1012.6
20260506145538 52 159 5.0 8.0 0.00 0.00 0.00 77 1012.6
20260506145414 52 178 3.0 8.0 0.00 0.00 0.00 76 1012.7
20260506145341 52 162 2.0 7.0 0.00 0.00 0.00 77 1012.7
20260506145239 52 187 3.0 7.0 0.00 0.00 0.00 77 1012.7
20260506145113 52 144 2.0 6.0 0.00 0.00 0.00 77 1012.7
20260506145023 52 191 1.0 3.0 0.00 0.00 0.00 77 1012.7
20260506144920 51 191 1.0 3.0 0.00 0.00 0.00 77 1012.7
20260506144827 51 191 1.0 3.0 0.00 0.00 0.00 77 1012.7
20260506144744 51 191 1.0 3.0 0.00 0.00 0.00 77 1012.7
20260506144631 51 191 1.0 3.0 0.00 0.00 0.00 77 1012.7
20260506144526 51 191 2.0 3.0 0.00 0.00 0.00 77 1012.7
20260506144431 51 191 2.0 3.0 0.00 0.00 0.00 77 1012.7
20260506144331 51 191 2.0 3.0 0.00 0.00 0.00 77 1012.7
20260506144240 51 191 1.0 3.0 0.00 0.00 0.00 77 1012.7
20260506144114 51 191 1.0 3.0 0.00 0.00 0.00 77 1012.7
20260506144032 51 191 1.0 3.0 0.00 0.00 0.00 77 1012.7
20260506143939 51 191 1.0 3.0 0.00 0.00 0.00 77 1012.7
20260506143817 51 191 1.0 3.0 0.00 0.00 0.00 77 1012.7
20260506143745 51 191 1.0 3.0 0.00 0.00 0.00 77 1012.7
20260506143623 51 191 1.0 3.0 0.00 0.00 0.00 77 1012.6
20260506143521 51 191 2.0 3.0 0.00 0.00 0.00 77 1012.6
20260506143428 51 191 1.0 3.0 0.00 0.00 0.00 77 1012.6
20260506143324 51 191 1.0 5.0 0.00 0.00 0.00 77 1012.5
20260506143231 51 191 1.0 5.0 0.00 0.00 0.00 77 1012.5
20260506143129 51 191 2.0 5.0 0.00 0.00 0.00 77 1012.4
20260506143040 51 191 2.0 5.0 0.00 0.00 0.00 77 1012.5
20260506142935 51 191 1.0 5.0 0.00 0.00 0.00 77 1012.4
20260506142839 51 191 1.0 5.0 0.00 0.00 0.00 77 1012.4
20260506142736 51 191 1.0 5.0 0.00 0.00 0.00 77 1012.4
20260506142620 51 191 2.0 5.0 0.00 0.00 0.00 77 1012.4
20260506142537 51 191 2.0 5.0 0.00 0.00 0.00 77 1012.4
20260506142423 50 200 2.0 4.0 0.00 0.00 0.00 77 1012.4
20260506142321 50 200 2.0 4.0 0.00 0.00 0.00 77 1012.4
20260506142232 50 196 1.0 3.0 0.00 0.00 0.00 76 1012.4
20260506142128 50 196 1.0 3.0 0.00 0.00 0.00 76 1012.4
20260506142025 50 196 1.0 3.0 0.00 0.00 0.00 76 1012.4
20260506141913 50 196 2.0 3.0 0.00 0.00 0.00 76 1012.4
20260506141830 50 196 1.0 3.0 0.00 0.00 0.00 76 1012.4
20260506141736 50 196 1.0 3.0 0.00 0.00 0.00 76 1012.4
20260506141637 50 196 0.0 2.0 0.00 0.00 0.00 76 1012.4
20260506141523 50 196 0.0 2.0 0.00 0.00 0.00 76 1012.4
20260506141418 50 196 0.0 2.0 0.00 0.00 0.00 76 1012.4
20260506141315 50 196 0.0 2.0 0.00 0.00 0.00 76 1012.4
20260506141222 50 196 0.0 2.0 0.00 0.00 0.00 76 1012.4
20260506141118 50 196 1.0 2.0 0.00 0.00 0.00 76 1012.4
20260506141024 50 196 0.0 2.0 0.00 0.00 0.00 76 1012.4
20260506140926 50 196 0.0 2.0 0.00 0.00 0.00 76 1012.4
20260506140821 50 196 0.0 2.0 0.00 0.00 0.00 76 1012.4
20260506140728 50 196 0.0 3.0 0.00 0.00 0.00 76 1012.4
20260506140624 50 196 1.0 3.0 0.00 0.00 0.00 76 1012.4
20260506140528 50 196 0.0 3.0 0.00 0.00 0.00 76 1012.4
20260506140426 50 196 0.0 4.0 0.00 0.00 0.00 76 1012.4
20260506140336 50 196 1.0 4.0 0.00 0.00 0.00 76 1012.4
20260506140230 50 196 1.0 4.0 0.00 0.00 0.00 76 1012.3
20260506140125 50 196 1.0 4.0 0.00 0.00 0.00 76 1012.3
20260506140032 50 196 1.0 4.0 0.00 0.00 0.00 76 1012.3
20260506135929 50 196 1.0 5.0 0.00 0.00 0.00 76 1012.3
20260506135836 50 196 2.0 8.0 0.00 0.00 0.00 76 1012.2
20260506135715 50 196 2.0 8.0 0.00 0.00 0.00 76 1012.1
20260506135614 50 196 1.0 8.0 0.00 0.00 0.00 76 1012.1
20260506135521 50 196 1.0 8.0 0.00 0.00 0.00 76 1012.1
20260506135418 50 196 2.0 8.0 0.00 0.00 0.00 76 1012.1
20260506135321 50 194 2.0 9.0 0.00 0.00 0.00 76 1012.1
20260506135236 50 195 3.0 9.0 0.00 0.00 0.00 76 1012.0
20260506135120 50 182 4.0 9.0 0.00 0.00 0.00 76 1012.0
20260506135024 50 183 5.0 9.0 0.00 0.00 0.00 76 1011.9
20260506134925 50 157 4.0 9.0 0.00 0.00 0.00 76 1011.9
20260506134820 50 178 4.0 9.0 0.00 0.00 0.00 76 1011.9
20260506134728 50 180 4.0 9.0 0.00 0.00 0.00 76 1011.9
20260506134624 50 173 4.0 9.0 0.00 0.00 0.00 76 1011.9
20260506134529 50 156 5.0 11.0 0.00 0.00 0.00 76 1011.9
20260506134426 50 183 6.0 11.0 0.00 0.00 0.00 76 1011.9
20260506134331 50 170 6.0 11.0 0.00 0.00 0.00 76 1011.9
20260506134231 50 151 6.0 11.0 0.00 0.00 0.00 76 1011.9
20260506134131 50 150 7.0 11.0 0.00 0.00 0.00 76 1011.8
20260506134035 50 158 7.0 11.0 0.00 0.00 0.00 76 1011.9
20260506133932 50 156 7.0 11.0 0.00 0.00 0.00 76 1011.8
20260506133838 50 173 7.0 11.0 0.00 0.00 0.00 76 1011.9
20260506133716 50 152 6.0 11.0 0.00 0.00 0.00 76 1011.8
20260506133616 50 160 6.0 9.0 0.00 0.00 0.00 76 1011.8
20260506133523 50 161 6.0 9.0 0.00 0.00 0.00 76 1011.8
20260506133440 50 169 5.0 9.0 0.00 0.00 0.00 76 1011.9
20260506133325 50 163 5.0 9.0 0.00 0.00 0.00 76 1011.9
20260506133221 50 158 6.0 9.0 0.00 0.00 0.00 76 1011.9
20260506133130 50 159 6.0 9.0 0.00 0.00 0.00 76 1011.9
20260506133044 50 158 6.0 9.0 0.00 0.00 0.00 76 1011.9
20260506132928 50 162 5.0 9.0 0.00 0.00 0.00 76 1011.9
20260506132837 50 173 5.0 9.0 0.00 0.00 0.00 76 1011.9
20260506132732 50 154 6.0 9.0 0.00 0.00 0.00 76 1011.8
20260506132638 50 127 6.0 9.0 0.00 0.00 0.00 76 1011.8
20260506132513 50 175 5.0 9.0 0.00 0.00 0.00 76 1011.8
20260506132430 50 159 5.0 9.0 0.00 0.00 0.00 76 1011.8
20260506132336 50 162 5.0 9.0 0.00 0.00 0.00 76 1011.8
20260506132218 50 155 4.0 9.0 0.00 0.00 0.00 76 1011.8
20260506132113 50 143 5.0 9.0 0.00 0.00 0.00 76 1011.7
20260506132019 50 125 5.0 8.0 0.00 0.00 0.00 76 1011.7
20260506131915 50 150 4.0 8.0 0.00 0.00 0.00 76 1011.8
20260506131822 50 134 4.0 11.0 0.00 0.00 0.00 76 1011.7
20260506131722 50 148 5.0 11.0 0.00 0.00 0.00 76 1011.8
20260506131618 50 159 5.0 11.0 0.00 0.00 0.00 76 1011.8
20260506131548 50 149 4.0 11.0 0.00 0.00 0.00 76 1011.8
20260506131432 50 150 4.0 11.0 0.00 0.00 0.00 76 1011.7
20260506131330 50 163 3.0 11.0 0.00 0.00 0.00 76 1011.8
20260506131255 50 170 3.0 11.0 0.00 0.00 0.00 76 1011.7
20260506131133 50 170 5.0 11.0 0.00 0.00 0.00 76 1011.7
20260506131039 50 151 5.0 11.0 0.00 0.00 0.00 76 1011.7
20260506130937 50 160 5.0 10.0 0.00 0.00 0.00 76 1011.7
20260506130816 50 166 5.0 10.0 0.00 0.00 0.00 76 1011.7
20260506130725 50 157 5.0 10.0 0.00 0.00 0.00 76 1011.6
20260506130621 50 150 4.0 10.0 0.00 0.00 0.00 76 1011.6
20260506130547 50 146 5.0 10.0 0.00 0.00 0.00 76 1011.6
20260506130422 50 149 5.0 10.0 0.00 0.00 0.00 76 1011.6
20260506130328 50 144 5.0 10.0 0.00 0.00 0.00 76 1011.6
20260506130225 50 152 3.0 10.0 0.00 0.00 0.00 76 1011.6
20260506130137 50 163 4.0 10.0 0.00 0.00 0.00 76 1011.6
20260506130049 50 150 5.0 10.0 0.00 0.00 0.00 77 1011.6
20260506125932 50 145 5.0 10.0 0.00 0.00 0.00 76 1011.5
20260506125828 50 147 5.0 10.0 0.00 0.00 0.00 76 1011.5
20260506125734 50 145 4.0 10.0 0.00 0.00 0.00 76 1011.5
20260506125654 50 155 3.0 10.0 0.00 0.00 0.00 76 1011.4
20260506125535 50 157 4.0 10.0 0.00 0.00 0.00 76 1011.5
20260506125417 50 172 6.0 11.0 0.00 0.00 0.00 76 1011.4
20260506125316 50 136 6.0 11.0 0.00 0.00 0.00 76 1011.4
20260506125223 50 144 6.0 11.0 0.00 0.00 0.00 76 1011.4
20260506125119 50 160 6.0 11.0 0.00 0.00 0.00 77 1011.4
20260506125024 50 149 6.0 11.0 0.00 0.00 0.00 77 1011.4
20260506124920 50 151 6.0 11.0 0.00 0.00 0.00 77 1011.4
20260506124817 50 144 6.0 11.0 0.00 0.00 0.00 77 1011.4
20260506124730 50 156 6.0 11.0 0.00 0.00 0.00 77 1011.4
20260506124625 50 140 6.0 11.0 0.00 0.00 0.00 77 1011.4
20260506124532 50 152 7.0 11.0 0.00 0.00 0.00 77 1011.4
20260506124428 50 150 6.0 11.0 0.00 0.00 0.00 77 1011.4
20260506124333 50 162 5.0 9.0 0.00 0.00 0.00 77 1011.4
20260506124240 50 150 5.0 9.0 0.00 0.00 0.00 77 1011.4
20260506124115 51 152 6.0 9.0 0.00 0.00 0.00 77 1011.4
20260506124024 51 150 6.0 9.0 0.00 0.00 0.00 77 1011.4
20260506123940 51 160 5.0 9.0 0.00 0.00 0.00 77 1011.4
20260506123825 51 158 5.0 9.0 0.00 0.00 0.00 77 1011.4
20260506123722 51 150 5.0 9.0 0.00 0.00 0.00 77 1011.4
20260506123651 51 170 5.0 8.0 0.00 0.00 0.00 77 1011.4
20260506123523 51 165 5.0 8.0 0.00 0.00 0.00 77 1011.4
20260506123450 51 153 5.0 8.0 0.00 0.00 0.00 77 1011.4
20260506123327 51 141 4.0 8.0 0.00 0.00 0.00 76 1011.3
20260506123238 51 152 4.0 8.0 0.00 0.00 0.00 76 1011.4
20260506123140 51 152 4.0 8.0 0.00 0.00 0.00 76 1011.3
20260506123015 51 154 4.0 9.0 0.00 0.00 0.00 76 1011.4
20260506122914 51 154 4.0 9.0 0.00 0.00 0.00 76 1011.3
20260506122819 51 154 4.0 9.0 0.00 0.00 0.00 76 1011.4
20260506122718 51 154 4.0 9.0 0.00 0.00 0.00 76 1011.3
20260506122622 51 156 5.0 9.0 0.00 0.00 0.00 76 1011.4
20260506122538 51 155 4.0 9.0 0.00 0.00 0.00 76 1011.3
20260506122426 51 152 4.0 9.0 0.00 0.00 0.00 76 1011.3
20260506122324 51 156 5.0 9.0 0.00 0.00 0.00 76 1011.3
20260506122231 51 158 5.0 9.0 0.00 0.00 0.00 76 1011.3
20260506122150 51 156 4.0 8.0 0.00 0.00 0.00 76 1011.3
20260506122033 51 157 5.0 8.0 0.00 0.00 0.00 76 1011.3
20260506122000 51 163 5.0 8.0 0.00 0.00 0.00 76 1011.3
20260506121817 51 144 4.0 8.0 0.00 0.00 0.00 76 1011.3
20260506121720 51 155 4.0 8.0 0.00 0.00 0.00 76 1011.3
20260506121626 51 142 4.0 8.0 0.00 0.00 0.00 76 1011.3
20260506121523 51 144 4.0 8.0 0.00 0.00 0.00 76 1011.3
20260506121420 51 164 4.0 8.0 0.00 0.00 0.00 76 1011.3
20260506121325 52 150 5.0 8.0 0.00 0.00 0.00 76 1011.3
20260506121221 52 163 4.0 8.0 0.00 0.00 0.00 76 1011.3
20260506121134 52 140 5.0 8.0 0.00 0.00 0.00 76 1011.3
20260506121030 52 139 5.0 8.0 0.00 0.00 0.00 76 1011.3
20260506120926 52 144 5.0 8.0 0.00 0.00 0.00 76 1011.3
20260506120832 52 171 4.0 8.0 0.00 0.00 0.00 76 1011.3
20260506120729 52 150 4.0 8.0 0.00 0.00 0.00 76 1011.2
20260506120637 52 153 4.0 8.0 0.00 0.00 0.00 76 1011.2
20260506120516 52 156 4.0 8.0 0.00 0.00 0.00 75 1011.2
20260506120414 52 158 4.0 8.0 0.00 0.00 0.00 75 1011.2
20260506120319 52 155 4.0 8.0 0.00 0.00 0.00 75 1011.2
20260506120217 52 154 4.0 8.0 0.00 0.00 0.00 75 1011.2
20260506120122 52 154 4.0 8.0 0.00 0.00 0.00 75 1011.2
20260506120019 52 155 4.0 8.0 0.00 0.00 0.00 75 1011.2
20260506115914 52 158 5.0 8.0 0.00 0.00 0.00 75 1011.1
20260506115825 52 144 5.0 8.0 0.00 0.00 0.00 75 1011.1
20260506115721 52 164 5.0 8.0 0.00 0.00 0.00 74 1011.1
20260506115630 52 151 4.0 8.0 0.00 0.00 0.00 74 1011.1
20260506115524 52 173 3.0 7.0 0.00 0.00 0.00 74 1011.1
20260506115430 52 143 3.0 7.0 0.00 0.00 0.00 74 1011.1
20260506115348 52 142 4.0 7.0 0.00 0.00 0.00 73 1011.2
20260506115230 52 143 4.0 7.0 0.00 0.00 0.00 73 1011.1
20260506115132 52 144 4.0 7.0 0.00 0.00 0.00 73 1011.1
20260506115037 52 146 3.0 7.0 0.00 0.00 0.00 72 1011.1
20260506114914 52 162 3.0 7.0 0.00 0.00 0.00 72 1011.0
20260506114831 52 162 3.0 7.0 0.00 0.00 0.00 72 1011.0
20260506114737 52 164 4.0 7.0 0.00 0.00 0.00 72 1011.0
20260506114635 52 166 4.0 6.0 0.00 0.00 0.00 72 1011.0
20260506114537 52 175 4.0 6.0 0.00 0.00 0.00 72 1011.0
20260506114418 52 153 3.0 7.0 0.00 0.00 0.00 72 1011.0
20260506114316 52 153 3.0 7.0 0.00 0.00 0.00 73 1011.0
20260506114224 52 153 3.0 7.0 0.00 0.00 0.00 73 1010.9
20260506114119 52 154 4.0 7.0 0.00 0.00 0.00 73 1010.9
20260506114014 53 146 4.0 7.0 0.00 0.00 0.00 73 1010.9
20260506113922 53 146 4.0 7.0 0.00 0.00 0.00 73 1010.9
20260506113823 53 147 4.0 7.0 0.00 0.00 0.00 73 1010.9
20260506113731 53 148 4.0 7.0 0.00 0.00 0.00 73 1010.9
20260506113626 53 148 4.0 7.0 0.00 0.00 0.00 73 1010.9
20260506113531 53 148 4.0 7.0 0.00 0.00 0.00 73 1010.9
20260506113430 53 150 4.0 7.0 0.00 0.00 0.00 73 1010.9
20260506113336 53 150 4.0 7.0 0.00 0.00 0.00 73 1010.9
20260506113215 53 151 4.0 7.0 0.00 0.00 0.00 73 1010.9
20260506113124 53 152 4.0 7.0 0.00 0.00 0.00 73 1010.9
20260506113039 53 153 5.0 7.0 0.00 0.00 0.00 73 1010.8
20260506112925 53 155 4.0 7.0 0.00 0.00 0.00 73 1010.9
20260506112822 53 156 4.0 7.0 0.00 0.00 0.00 74 1010.8
20260506112731 53 159 4.0 7.0 0.00 0.00 0.00 74 1010.8
20260506112625 53 160 4.0 7.0 0.00 0.00 0.00 74 1010.9
20260506112523 53 160 4.0 7.0 0.00 0.00 0.00 74 1010.8
20260506112434 53 160 4.0 7.0 0.00 0.00 0.00 74 1010.8
20260506112330 53 160 4.0 7.0 0.00 0.00 0.00 74 1010.8
20260506112239 53 160 4.0 7.0 0.00 0.00 0.00 74 1010.8
20260506112114 53 161 4.0 7.0 0.00 0.00 0.00 75 1010.8
20260506112030 53 162 4.0 7.0 0.00 0.00 0.00 75 1010.8
20260506111937 53 162 4.0 7.0 0.00 0.00 0.00 75 1010.8
20260506111819 53 162 4.0 7.0 0.00 0.00 0.00 75 1010.8
20260506111719 53 163 4.0 7.0 0.00 0.00 0.00 75 1010.8
20260506111623 53 163 4.0 7.0 0.00 0.00 0.00 75 1010.8
20260506111519 53 163 4.0 7.0 0.00 0.00 0.00 75 1010.8
20260506111427 53 163 4.0 7.0 0.00 0.00 0.00 75 1010.8
20260506111323 53 163 3.0 8.0 0.00 0.00 0.00 75 1010.8
20260506111224 53 165 3.0 8.0 0.00 0.00 0.00 75 1010.8
20260506111132 53 164 3.0 8.0 0.00 0.00 0.00 75 1010.8
20260506111028 53 164 4.0 8.0 0.00 0.00 0.00 75 1010.7
20260506110933 53 164 4.0 8.0 0.00 0.00 0.00 75 1010.7
20260506110830 53 166 3.0 8.0 0.00 0.00 0.00 75 1010.7
20260506110755 53 163 3.0 9.0 0.00 0.00 0.00 74 1010.7
20260506110633 53 161 4.0 9.0 0.00 0.00 0.00 74 1010.7
20260506110520 53 162 4.0 9.0 0.00 0.00 0.00 74 1010.7
20260506110418 53 164 3.0 9.0 0.00 0.00 0.00 74 1010.7
20260506110345 53 164 3.0 9.0 0.00 0.00 0.00 74 1010.7
20260506110230 53 165 3.0 9.0 0.00 0.00 0.00 73 1010.7
20260506110125 53 165 4.0 9.0 0.00 0.00 0.00 73 1010.7
20260506110023 53 166 5.0 9.0 0.00 0.00 0.00 73 1010.7
20260506105928 53 161 5.0 9.0 0.00 0.00 0.00 73 1010.7
20260506105824 53 160 6.0 9.0 0.00 0.00 0.00 73 1010.7
20260506105734 53 162 6.0 9.0 0.00 0.00 0.00 73 1010.7
20260506105631 53 162 5.0 9.0 0.00 0.00 0.00 73 1010.7
20260506105517 53 167 4.0 9.0 0.00 0.00 0.00 73 1010.7
20260506105412 53 149 4.0 9.0 0.00 0.00 0.00 73 1010.7
20260506105339 53 150 5.0 9.0 0.00 0.00 0.00 73 1010.7
20260506105218 53 150 5.0 9.0 0.00 0.00 0.00 73 1010.6
20260506105116 53 148 5.0 9.0 0.00 0.00 0.00 73 1010.7
20260506105023 53 167 5.0 9.0 0.00 0.00 0.00 73 1010.7
20260506104921 53 146 4.0 9.0 0.00 0.00 0.00 73 1010.6
20260506104847 53 169 4.0 9.0 0.00 0.00 0.00 72 1010.6
20260506104721 53 142 5.0 9.0 0.00 0.00 0.00 72 1010.6
20260506104628 53 142 5.0 9.0 0.00 0.00 0.00 72 1010.6
20260506104522 53 148 5.0 9.0 0.00 0.00 0.00 71 1010.6
20260506104448 53 142 5.0 9.0 0.00 0.00 0.00 71 1010.6
20260506104338 53 136 6.0 9.0 0.00 0.00 0.00 70 1010.5
20260506104235 53 138 5.0 8.0 0.00 0.00 0.00 70 1010.6
20260506104137 54 136 6.0 8.0 0.00 0.00 0.00 70 1010.6
20260506104014 54 141 6.0 8.0 0.00 0.00 0.00 69 1010.5
20260506103920 54 150 5.0 8.0 0.00 0.00 0.00 69 1010.5
20260506103816 54 140 5.0 8.0 0.00 0.00 0.00 69 1010.6
20260506103715 54 139 5.0 8.0 0.00 0.00 0.00 69 1010.5
20260506103624 54 136 5.0 8.0 0.00 0.00 0.00 69 1010.5
20260506103549 54 140 6.0 8.0 0.00 0.00 0.00 70 1010.5
20260506103424 54 142 5.0 8.0 0.00 0.00 0.00 70 1010.5
20260506103322 54 146 5.0 8.0 0.00 0.00 0.00 70 1010.5
20260506103230 54 149 5.0 8.0 0.00 0.00 0.00 71 1010.5
20260506103126 54 148 5.0 8.0 0.00 0.00 0.00 71 1010.5
20260506103032 54 158 4.0 7.0 0.00 0.00 0.00 71 1010.5
20260506102947 55 159 4.0 7.0 0.00 0.00 0.00 71 1010.4
20260506102833 55 160 4.0 7.0 0.00 0.00 0.00 71 1010.5
20260506102802 55 161 3.0 6.0 0.00 0.00 0.00 72 1010.4
20260506102615 55 162 4.0 6.0 0.00 0.00 0.00 72 1010.4
20260506102512 55 162 3.0 6.0 0.00 0.00 0.00 72 1010.4
20260506102437 55 162 3.0 6.0 0.00 0.00 0.00 72 1010.4
20260506102315 55 163 3.0 6.0 0.00 0.00 0.00 71 1010.4
20260506102220 55 163 3.0 6.0 0.00 0.00 0.00 71 1010.4
20260506102119 55 163 3.0 6.0 0.00 0.00 0.00 71 1010.4
20260506102016 55 163 3.0 6.0 0.00 0.00 0.00 71 1010.4
20260506101942 55 163 3.0 6.0 0.00 0.00 0.00 71 1010.4
20260506101827 55 163 4.0 6.0 0.00 0.00 0.00 71 1010.4
20260506101725 55 163 3.0 7.0 0.00 0.00 0.00 71 1010.4
20260506101621 55 163 3.0 7.0 0.00 0.00 0.00 72 1010.4
20260506101525 55 163 3.0 7.0 0.00 0.00 0.00 72 1010.4
20260506101434 55 163 3.0 7.0 0.00 0.00 0.00 72 1010.4
20260506101312 56 163 3.0 7.0 0.00 0.00 0.00 72 1010.4
20260506101240 56 163 3.0 7.0 0.00 0.00 0.00 72 1010.4
20260506101114 56 163 3.0 7.0 0.00 0.00 0.00 72 1010.4
20260506101031 56 163 4.0 7.0 0.00 0.00 0.00 72 1010.4
20260506100937 56 163 4.0 7.0 0.00 0.00 0.00 72 1010.4
20260506100818 56 163 3.0 7.0 0.00 0.00 0.00 72 1010.4
20260506100717 56 163 3.0 7.0 0.00 0.00 0.00 72 1010.4
20260506100620 56 164 4.0 7.0 0.00 0.00 0.00 72 1010.4
20260506100518 56 164 4.0 6.0 0.00 0.00 0.00 72 1010.4
20260506100415 56 164 3.0 6.0 0.00 0.00 0.00 72 1010.4
20260506100320 56 165 4.0 6.0 0.00 0.00 0.00 72 1010.4
20260506100215 56 164 4.0 6.0 0.00 0.00 0.00 72 1010.4
20260506100124 56 165 3.0 6.0 0.00 0.00 0.00 72 1010.3
20260506100021 56 165 3.0 6.0 0.00 0.00 0.00 72 1010.4
20260506095925 56 165 3.0 6.0 0.00 0.00 0.00 72 1010.3
20260506095822 56 165 3.0 7.0 0.00 0.00 0.00 72 1010.4
20260506095749 57 165 3.0 7.0 0.00 0.00 0.00 72 1010.4
20260506095622 57 165 3.0 7.0 0.00 0.00 0.00 71 1010.3
20260506095517 57 165 3.0 7.0 0.00 0.00 0.00 71 1010.3
20260506095425 57 165 4.0 7.0 0.00 0.00 0.00 71 1010.3
20260506095332 57 165 4.0 7.0 0.00 0.00 0.00 71 1010.3
20260506095228 57 166 4.0 7.0 0.00 0.00 0.00 71 1010.3
20260506095137 57 166 4.0 7.0 0.00 0.00 0.00 71 1010.4
20260506095012 57 166 4.0 7.0 0.00 0.00 0.00 71 1010.3
20260506094930 57 194 3.0 5.0 0.00 0.00 0.00 71 1010.3
20260506094835 57 194 3.0 5.0 0.00 0.00 0.00 70 1010.3
20260506094719 57 200 3.0 5.0 0.00 0.00 0.00 70 1010.3
20260506094614 57 200 3.0 5.0 0.00 0.00 0.00 70 1010.4
20260506094541 58 200 2.0 4.0 0.00 0.00 0.00 70 1010.3
20260506094446 58 201 2.0 4.0 0.00 0.00 0.00 70 1010.3
20260506094322 58 201 2.0 4.0 0.00 0.00 0.00 70 1010.3
20260506094229 58 201 2.0 4.0 0.00 0.00 0.00 70 1010.3
20260506094127 58 201 1.0 4.0 0.00 0.00 0.00 70 1010.3
20260506094037 58 201 1.0 4.0 0.00 0.00 0.00 70 1010.3
20260506093912 58 201 1.0 4.0 0.00 0.00 0.00 70 1010.4
20260506093829 58 201 1.0 4.0 0.00 0.00 0.00 70 1010.4
20260506093734 58 201 1.0 4.0 0.00 0.00 0.00 70 1010.3
20260506093643 58 201 1.0 4.0 0.00 0.00 0.00 70 1010.3
20260506093517 58 201 1.0 4.0 0.00 0.00 0.00 70 1010.3
20260506093418 58 201 1.0 4.0 0.00 0.00 0.00 70 1010.3
20260506093323 58 201 1.0 4.0 0.00 0.00 0.00 70 1010.3
20260506093221 58 201 1.0 4.0 0.00 0.00 0.00 70 1010.3
20260506093125 58 201 1.0 4.0 0.00 0.00 0.00 70 1010.3
20260506093042 58 201 0.0 4.0 0.00 0.00 0.00 70 1010.4
20260506092927 58 201 1.0 4.0 0.00 0.00 0.00 70 1010.4
20260506092823 58 201 2.0 4.0 0.00 0.00 0.00 70 1010.3
20260506092729 58 201 2.0 4.0 0.00 0.00 0.00 70 1010.3
20260506092632 58 201 2.0 4.0 0.00 0.00 0.00 70 1010.3
20260506092535 58 201 2.0 4.0 0.00 0.00 0.00 70 1010.3
20260506092432 58 201 2.0 4.0 0.00 0.00 0.00 70 1010.3
20260506092338 58 201 3.0 4.0 0.00 0.00 0.00 70 1010.3
20260506092215 59 201 2.0 5.0 0.00 0.00 0.00 70 1010.2
20260506092118 59 201 2.0 5.0 0.00 0.00 0.00 70 1010.2
20260506092013 59 201 3.0 5.0 0.00 0.00 0.00 70 1010.2
20260506091922 59 201 2.0 5.0 0.00 0.00 0.00 70 1010.2
20260506091820 59 201 3.0 5.0 0.00 0.00 0.00 70 1010.2
20260506091718 59 201 3.0 5.0 0.00 0.00 0.00 70 1010.3
20260506091621 59 201 3.0 5.0 0.00 0.00 0.00 70 1010.3
20260506091526 59 201 3.0 5.0 0.00 0.00 0.00 70 1010.3
20260506091421 59 202 3.0 5.0 0.00 0.00 0.00 70 1010.3
20260506091318 59 202 3.0 5.0 0.00 0.00 0.00 70 1010.3
20260506091245 59 202 3.0 5.0 0.00 0.00 0.00 70 1010.3
20260506091137 59 202 3.0 5.0 0.00 0.00 0.00 70 1010.3
20260506091032 59 202 3.0 5.0 0.00 0.00 0.00 70 1010.3
20260506090930 59 202 3.0 5.0 0.00 0.00 0.00 69 1010.3
20260506090835 59 206 3.0 5.0 0.00 0.00 0.00 69 1010.3
20260506090713 59 206 3.0 5.0 0.00 0.00 0.00 69 1010.3
20260506090641 59 206 3.0 5.0 0.00 0.00 0.00 69 1010.3
20260506090539 59 206 3.0 4.0 0.00 0.00 0.00 69 1010.2
20260506090445 59 206 3.0 5.0 0.00 0.00 0.00 69 1010.2
20260506090321 59 206 3.0 5.0 0.00 0.00 0.00 69 1010.2
20260506090229 59 206 3.0 5.0 0.00 0.00 0.00 69 1010.2
20260506090123 59 206 3.0 5.0 0.00 0.00 0.00 69 1010.2
20260506090049 59 206 3.0 5.0 0.00 0.00 0.00 69 1010.2
20260506085923 59 206 3.0 5.0 0.00 0.00 0.00 69 1010.2
20260506085829 59 206 3.0 5.0 0.00 0.00 0.00 69 1010.2
20260506085752 59 207 3.0 5.0 0.00 0.00 0.00 69 1010.2
20260506085705 59 207 3.0 5.0 0.00 0.00 0.00 69 1010.2
20260506085515 59 208 3.0 5.0 0.00 0.00 0.00 69 1010.2
20260506085413 59 208 3.0 5.0 0.00 0.00 0.00 69 1010.2
20260506085319 59 210 3.0 5.0 0.00 0.00 0.00 69 1010.2
20260506085219 59 210 3.0 5.0 0.00 0.00 0.00 69 1010.2
20260506085143 59 210 3.0 5.0 0.00 0.00 0.00 69 1010.2
20260506085018 59 210 3.0 5.0 0.00 0.00 0.00 69 1010.2
20260506084929 59 210 3.0 5.0 0.00 0.00 0.00 69 1010.2
20260506084828 59 210 3.0 4.0 0.00 0.00 0.00 69 1010.2
20260506084733 59 210 3.0 4.0 0.00 0.00 0.00 69 1010.3
20260506084631 59 210 3.0 4.0 0.00 0.00 0.00 69 1010.3
20260506084535 60 210 3.0 4.0 0.00 0.00 0.00 69 1010.3
20260506084425 60 210 3.0 4.0 0.00 0.00 0.00 69 1010.2
20260506084330 60 210 2.0 4.0 0.00 0.00 0.00 69 1010.2
20260506084232 60 210 2.0 4.0 0.00 0.00 0.00 69 1010.2
20260506084131 60 210 2.0 4.0 0.00 0.00 0.00 69 1010.3
20260506084018 60 210 2.0 4.0 0.00 0.00 0.00 69 1010.3
20260506083915 60 210 3.0 4.0 0.00 0.00 0.00 69 1010.3
20260506083840 60 210 3.0 4.0 0.00 0.00 0.00 69 1010.3
20260506083719 60 210 2.0 4.0 0.00 0.00 0.00 69 1010.3
20260506083644 60 210 2.0 4.0 0.00 0.00 0.00 69 1010.3
20260506083518 60 210 2.0 4.0 0.00 0.00 0.00 69 1010.3
20260506083424 60 210 2.0 4.0 0.00 0.00 0.00 69 1010.3
20260506083321 60 210 3.0 4.0 0.00 0.00 0.00 69 1010.3
20260506083220 60 210 3.0 4.0 0.00 0.00 0.00 69 1010.3
20260506083125 60 210 3.0 4.0 0.00 0.00 0.00 69 1010.3
20260506083023 60 210 3.0 4.0 0.00 0.00 0.00 69 1010.2
20260506082929 60 210 3.0 4.0 0.00 0.00 0.00 69 1010.2
20260506082830 60 210 3.0 4.0 0.00 0.00 0.00 69 1010.3
20260506082735 60 210 3.0 4.0 0.00 0.00 0.00 69 1010.3
20260506082703 60 210 3.0 4.0 0.00 0.00 0.00 69 1010.3
20260506082517 60 210 3.0 4.0 0.00 0.00 0.00 69 1010.3
20260506082415 60 210 2.0 3.0 0.00 0.00 0.00 69 1010.3
20260506082340 60 210 2.0 3.0 0.00 0.00 0.00 69 1010.3
20260506082218 60 210 2.0 3.0 0.00 0.00 0.00 69 1010.3
20260506082149 60 210 2.0 3.0 0.00 0.00 0.00 69 1010.3
20260506082024 60 210 2.0 3.0 0.00 0.00 0.00 69 1010.3
20260506081929 60 210 2.0 4.0 0.00 0.00 0.00 69 1010.3
20260506081825 60 210 2.0 4.0 0.00 0.00 0.00 69 1010.3
20260506081731 60 210 2.0 4.0 0.00 0.00 0.00 69 1010.3
20260506081647 60 210 2.0 4.0 0.00 0.00 0.00 68 1010.3
20260506081513 60 210 3.0 4.0 0.00 0.00 0.00 68 1010.2
20260506081427 60 210 3.0 4.0 0.00 0.00 0.00 68 1010.2
20260506081315 60 210 3.0 4.0 0.00 0.00 0.00 68 1010.2
20260506081242 60 210 3.0 4.0 0.00 0.00 0.00 68 1010.2
20260506081137 60 210 3.0 4.0 0.00 0.00 0.00 68 1010.3
20260506081043 60 210 2.0 3.0 0.00 0.00 0.00 68 1010.3
20260506080938 60 210 2.0 3.0 0.00 0.00 0.00 68 1010.2
20260506080824 60 210 2.0 3.0 0.00 0.00 0.00 68 1010.2
20260506080729 60 210 2.0 3.0 0.00 0.00 0.00 68 1010.2
20260506080625 60 210 2.0 3.0 0.00 0.00 0.00 68 1010.2
20260506080534 60 210 2.0 3.0 0.00 0.00 0.00 68 1010.2
20260506080429 60 210 2.0 3.0 0.00 0.00 0.00 68 1010.2
20260506080332 60 210 2.0 3.0 0.00 0.00 0.00 68 1010.2
20260506080226 60 210 2.0 3.0 0.00 0.00 0.00 68 1010.2
20260506080152 60 210 2.0 3.0 0.00 0.00 0.00 68 1010.2
20260506073521 61 210 0.0 1.0 0.00 0.00 0.00 67 1010.0
20260506073427 61 210 0.0 0.0 0.00 0.00 0.00 67 1010.0
20260506073323 61 210 0.0 0.0 0.00 0.00 0.00 67 1009.9
20260506073251 61 210 0.0 0.0 0.00 0.00 0.00 67 1009.9
20260506073125 61 210 0.0 0.0 0.00 0.00 0.00 67 1009.9
20260506073051 61 210 0.0 0.0 0.00 0.00 0.00 67 1009.9
20260506072931 61 210 0.0 0.0 0.00 0.00 0.00 67 1009.9
20260506072836 61 210 0.0 0.0 0.00 0.00 0.00 67 1009.9
20260506072713 61 210 0.0 0.0 0.00 0.00 0.00 67 1009.9
20260506072642 61 210 0.0 0.0 0.00 0.00 0.00 67 1009.9
20260506072517 61 210 0.0 0.0 0.00 0.00 0.00 66 1009.9
20260506072413 61 210 0.0 0.0 0.00 0.00 0.00 66 1009.9
20260506072314 61 210 0.0 0.0 0.00 0.00 0.00 66 1009.9
20260506072222 61 210 0.0 0.0 0.00 0.00 0.00 66 1009.8
20260506072117 61 210 0.0 0.0 0.00 0.00 0.00 66 1009.8
20260506072024 61 210 0.0 0.0 0.00 0.00 0.00 66 1009.9
20260506071921 61 210 0.0 0.0 0.00 0.00 0.00 66 1009.9
20260506071818 62 210 0.0 0.0 0.00 0.00 0.00 66 1009.8
20260506071725 62 210 0.0 0.0 0.00 0.00 0.00 66 1009.8
20260506071625 62 210 0.0 0.0 0.00 0.00 0.00 65 1009.8
20260506071522 62 210 0.0 0.0 0.00 0.00 0.00 65 1009.8
20260506071429 62 210 0.0 0.0 0.00 0.00 0.00 65 1009.8
20260506071327 62 210 0.0 0.0 0.00 0.00 0.00 65 1009.8
20260506071233 62 210 0.0 0.0 0.00 0.00 0.00 65 1009.7
20260506071132 62 210 0.0 0.0 0.00 0.00 0.00 65 1009.8
20260506071056 62 210 0.0 0.0 0.00 0.00 0.00 65 1009.8
20260506070833 62 210 0.0 0.0 0.00 0.00 0.00 64 1009.7
20260506070730 62 210 0.0 0.0 0.00 0.00 0.00 64 1009.7
20260506070636 62 210 0.0 0.0 0.00 0.00 0.00 64 1009.7
20260506070548 62 210 0.0 0.0 0.00 0.00 0.00 64 1009.7
20260506070433 62 210 0.0 0.0 0.00 0.00 0.00 64 1009.7
20260506070329 62 210 0.0 0.0 0.00 0.00 0.00 64 1009.6
20260506070238 62 210 0.0 0.0 0.00 0.00 0.00 64 1009.6
20260506070117 62 210 0.0 2.0 0.00 0.00 0.00 64 1009.6
20260506062433 64 210 1.0 2.0 0.00 0.00 0.00 60 1009.4
20260506062358 64 210 1.0 2.0 0.00 0.00 0.00 60 1009.4
20260506062215 64 210 0.0 2.0 0.00 0.00 0.00 60 1009.3
20260506062140 64 210 0.0 2.0 0.00 0.00 0.00 60 1009.4
20260506062045 64 210 0.0 2.0 0.00 0.00 0.00 60 1009.3
20260506061918 64 210 0.0 2.0 0.00 0.00 0.00 60 1009.3
20260506061815 64 210 0.0 2.0 0.00 0.00 0.00 59 1009.3
20260506061724 64 210 0.0 2.0 0.00 0.00 0.00 59 1009.3
20260506061621 64 210 1.0 2.0 0.00 0.00 0.00 60 1009.3
20260506061529 64 210 1.0 3.0 0.00 0.00 0.00 60 1009.3
20260506061426 65 210 1.0 4.0 0.00 0.00 0.00 59 1009.2
20260506061323 65 210 1.0 4.0 0.00 0.00 0.00 59 1009.2
20260506061231 65 210 1.0 4.0 0.00 0.00 0.00 59 1009.2
20260506061125 65 210 1.0 4.0 0.00 0.00 0.00 59 1009.1
20260506061035 65 210 1.0 4.0 0.00 0.00 0.00 59 1009.1
20260506060930 65 210 0.0 4.0 0.00 0.00 0.00 60 1009.1
20260506060814 65 210 2.0 4.0 0.00 0.00 0.00 60 1009.1
20260506060741 65 210 3.0 4.0 0.00 0.00 0.00 60 1009.1
20260506060617 65 210 3.0 4.0 0.00 0.00 0.00 60 1009.1
20260506060524 65 236 2.0 4.0 0.00 0.00 0.00 60 1009.1
20260506060441 65 236 3.0 4.0 0.00 0.00 0.00 60 1009.1
20260506060325 65 236 3.0 4.0 0.00 0.00 0.00 60 1009.1
20260506060226 65 236 3.0 4.0 0.00 0.00 0.00 60 1009.1
20260506060134 65 237 2.0 3.0 0.00 0.00 0.00 60 1009.0
20260506051326 68 304 0.0 2.0 0.00 0.00 0.00 53 1008.5
20260506051232 68 304 0.0 2.0 0.00 0.00 0.00 53 1008.5
20260506051131 68 304 0.0 2.0 0.00 0.00 0.00 53 1008.5
20260506051027 68 304 0.0 2.0 0.00 0.00 0.00 53 1008.5
20260506050931 68 304 1.0 2.0 0.00 0.00 0.00 53 1008.5
20260506050900 68 304 1.0 2.0 0.00 0.00 0.00 53 1008.5
20260506050717 68 304 1.0 2.0 0.00 0.00 0.00 54 1008.5
20260506050616 68 304 1.0 2.0 0.00 0.00 0.00 54 1008.5
20260506050543 68 304 1.0 2.0 0.00 0.00 0.00 54 1008.5
20260506050419 68 304 1.0 2.0 0.00 0.00 0.00 54 1008.5
20260506050325 68 304 1.0 2.0 0.00 0.00 0.00 54 1008.5
20260506050223 68 302 0.0 1.0 0.00 0.00 0.00 54 1008.5
20260506050117 68 302 0.0 1.0 0.00 0.00 0.00 53 1008.5
20260506045130 69 300 1.0 2.0 0.00 0.00 0.00 51 1008.4
20260506045052 69 300 1.0 2.0 0.00 0.00 0.00 51 1008.5
20260506044958 69 300 0.0 3.0 0.00 0.00 0.00 50 1008.4
20260506044813 69 300 1.0 3.0 0.00 0.00 0.00 50 1008.5
20260506044729 69 300 1.0 3.0 0.00 0.00 0.00 50 1008.5
20260506044635 70 300 1.0 3.0 0.00 0.00 0.00 49 1008.4
20260506044514 70 300 0.0 3.0 0.00 0.00 0.00 49 1008.4
20260506044440 70 300 1.0 3.0 0.00 0.00 0.00 49 1008.4
20260506044318 70 300 2.0 3.0 0.00 0.00 0.00 48 1008.4
20260506044216 70 300 2.0 3.0 0.00 0.00 0.00 48 1008.4
20260506044123 70 300 1.0 3.0 0.00 0.00 0.00 47 1008.4
20260506044019 70 300 1.0 3.0 0.00 0.00 0.00 47 1008.4
20260506043921 70 300 2.0 3.0 0.00 0.00 0.00 46 1008.3
20260506043828 70 300 2.0 3.0 0.00 0.00 0.00 46 1008.3
20260506043725 70 300 1.0 3.0 0.00 0.00 0.00 46 1008.3
20260506043653 70 335 1.0 3.0 0.00 0.00 0.00 45 1008.3
20260506043535 70 335 1.0 3.0 0.00 0.00 0.00 45 1008.3
20260506043413 70 336 1.0 3.0 0.00 0.00 0.00 44 1008.3
20260506043340 70 337 0.0 3.0 0.00 0.00 0.00 44 1008.3
20260506043217 71 337 0.0 3.0 0.00 0.00 0.00 44 1008.3
20260506043118 71 337 0.0 3.0 0.00 0.00 0.00 44 1008.3
20260506043025 71 337 0.0 3.0 0.00 0.00 0.00 44 1008.3
20260506042952 71 337 1.0 3.0 0.00 0.00 0.00 44 1008.3
20260506042829 71 337 1.0 3.0 0.00 0.00 0.00 44 1008.3
20260506042734 71 337 1.0 3.0 0.00 0.00 0.00 44 1008.3
20260506042700 71 337 1.0 3.0 0.00 0.00 0.00 44 1008.3
20260506042535 71 337 1.0 2.0 0.00 0.00 0.00 44 1008.3
20260506042440 71 337 0.0 2.0 0.00 0.00 0.00 44 1008.3
20260506042320 71 337 0.0 0.0 0.00 0.00 0.00 44 1008.2
20260506042248 71 337 0.0 0.0 0.00 0.00 0.00 44 1008.2
20260506042123 71 337 0.0 0.0 0.00 0.00 0.00 43 1008.1
20260506042050 71 337 0.0 2.0 0.00 0.00 0.00 43 1008.1
20260506041936 71 337 0.0 2.0 0.00 0.00 0.00 43 1008.1
20260506041814 71 337 0.0 2.0 0.00 0.00 0.00 43 1008.1
20260506041732 71 337 0.0 2.0 0.00 0.00 0.00 43 1008.1
20260506041620 72 337 0.0 2.0 0.00 0.00 0.00 43 1008.1
20260506041518 72 337 0.0 2.0 0.00 0.00 0.00 43 1008.1
20260506041445 72 337 0.0 2.0 0.00 0.00 0.00 42 1008.1
20260506041319 72 337 0.0 2.0 0.00 0.00 0.00 42 1008.1
20260506041219 72 337 1.0 2.0 0.00 0.00 0.00 42 1008.0
20260506041124 72 337 1.0 2.0 0.00 0.00 0.00 41 1008.1
20260506041012 72 337 0.0 2.0 0.00 0.00 0.00 41 1008.1
20260506040939 72 337 0.0 3.0 0.00 0.00 0.00 41 1008.0
20260506040829 72 337 0.0 3.0 0.00 0.00 0.00 42 1008.0
20260506040747 72 337 0.0 4.0 0.00 0.00 0.00 41 1008.0
20260506040634 72 337 0.0 4.0 0.00 0.00 0.00 41 1008.0
20260506040559 72 337 1.0 5.0 0.00 0.00 0.00 41 1008.0
20260506040433 72 337 1.0 5.0 0.00 0.00 0.00 41 1008.0
20260506040317 72 337 1.0 5.0 0.00 0.00 0.00 41 1007.9
20260506040215 72 337 2.0 5.0 0.00 0.00 0.00 41 1007.9
20260506040142 72 337 2.0 5.0 0.00 0.00 0.00 41 1007.9
20260506040021 72 337 2.0 5.0 0.00 0.00 0.00 41 1007.9
20260506035919 72 337 2.0 5.0 0.00 0.00 0.00 41 1007.9
20260506035844 72 337 3.0 5.0 0.00 0.00 0.00 41 1007.9
20260506035730 72 337 3.0 5.0 0.00 0.00 0.00 41 1007.9
20260506035626 72 337 3.0 6.0 0.00 0.00 0.00 41 1007.9
20260506035521 72 341 3.0 6.0 0.00 0.00 0.00 41 1007.8
20260506035426 72 341 2.0 6.0 0.00 0.00 0.00 41 1007.8
20260506035335 72 341 2.0 6.0 0.00 0.00 0.00 41 1007.8
20260506035231 73 341 2.0 6.0 0.00 0.00 0.00 41 1007.8
20260506035126 73 343 3.0 6.0 0.00 0.00 0.00 41 1007.6
20260506035031 73 343 4.0 6.0 0.00 0.00 0.00 41 1007.6
20260506034930 73 344 4.0 6.0 0.00 0.00 0.00 41 1007.6
20260506034836 73 337 4.0 6.0 0.00 0.00 0.00 41 1007.6
20260506034719 73 356 3.0 6.0 0.00 0.00 0.00 41 1007.6
20260506034635 73 346 3.0 6.0 0.00 0.00 0.00 41 1007.6
20260506034519 73 346 3.0 6.0 0.00 0.00 0.00 40 1007.6
20260506034415 73 331 2.0 4.0 0.00 0.00 0.00 40 1007.5
20260506034322 73 329 2.0 4.0 0.00 0.00 0.00 40 1007.5
20260506034240 73 329 2.0 5.0 0.00 0.00 0.00 40 1007.5
20260506034123 73 329 2.0 5.0 0.00 0.00 0.00 40 1007.5
20260506034021 73 329 2.0 6.0 0.00 0.00 0.00 40 1007.5
20260506033931 73 327 2.0 6.0 0.00 0.00 0.00 40 1007.5
20260506033826 73 327 3.0 6.0 0.00 0.00 0.00 40 1007.4
20260506033731 73 327 3.0 6.0 0.00 0.00 0.00 40 1007.4
20260506033635 73 326 3.0 6.0 0.00 0.00 0.00 40 1007.4
20260506033530 73 325 3.0 6.0 0.00 0.00 0.00 40 1007.4
20260506033427 73 324 3.0 6.0 0.00 0.00 0.00 40 1007.4
20260506033334 74 324 3.0 6.0 0.00 0.00 0.00 40 1007.4
20260506033217 74 324 3.0 6.0 0.00 0.00 0.00 40 1007.3
20260506033113 74 327 3.0 6.0 0.00 0.00 0.00 39 1007.3
20260506033019 74 325 3.0 6.0 0.00 0.00 0.00 39 1007.3
20260506032915 74 323 3.0 6.0 0.00 0.00 0.00 39 1007.3
20260506032822 74 323 4.0 6.0 0.00 0.00 0.00 39 1007.3
20260506032721 74 332 4.0 6.0 0.00 0.00 0.00 39 1007.3
20260506032622 74 326 3.0 5.0 0.00 0.00 0.00 39 1007.2
20260506032528 74 325 3.0 5.0 0.00 0.00 0.00 39 1007.2
20260506032454 74 321 3.0 5.0 0.00 0.00 0.00 39 1007.2
20260506032329 74 319 3.0 4.0 0.00 0.00 0.00 39 1007.2
20260506032234 74 319 3.0 4.0 0.00 0.00 0.00 39 1007.2
20260506032132 74 316 2.0 4.0 0.00 0.00 0.00 39 1007.2
20260506032016 74 315 1.0 5.0 0.00 0.00 0.00 39 1007.2
20260506031913 74 314 2.0 8.0 0.00 0.00 0.00 39 1007.2
20260506031815 74 314 2.0 8.0 0.00 0.00 0.00 39 1007.2
20260506031724 74 314 2.0 8.0 0.00 0.00 0.00 39 1007.1
20260506031619 74 314 2.0 8.0 0.00 0.00 0.00 38 1007.2
20260506031544 75 313 1.0 8.0 0.00 0.00 0.00 38 1007.2
20260506031421 75 313 2.0 8.0 0.00 0.00 0.00 38 1007.2
20260506031327 75 313 2.0 8.0 0.00 0.00 0.00 38 1007.2
20260506031233 75 312 3.0 8.0 0.00 0.00 0.00 38 1007.1
20260506031147 75 312 5.0 9.0 0.00 0.00 0.00 38 1007.1
20260506031035 75 318 5.0 9.0 0.00 0.00 0.00 38 1007.1
20260506031000 75 300 3.0 10.0 0.00 0.00 0.00 38 1007.1
20260506030814 75 299 3.0 10.0 0.00 0.00 0.00 38 1007.2
20260506030714 75 300 4.0 10.0 0.00 0.00 0.00 38 1007.1
20260506030621 75 299 4.0 10.0 0.00 0.00 0.00 38 1007.1
20260506030535 75 299 6.0 10.0 0.00 0.00 0.00 38 1007.1
20260506030420 75 323 6.0 11.0 0.00 0.00 0.00 38 1007.0
20260506030319 75 321 6.0 11.0 0.00 0.00 0.00 38 1007.1
20260506030216 75 304 6.0 11.0 0.00 0.00 0.00 38 1007.1
20260506030118 75 354 5.0 11.0 0.00 0.00 0.00 38 1007.0
20260506030016 75 314 4.0 11.0 0.00 0.00 0.00 38 1007.1
20260506025921 75 314 5.0 11.0 0.00 0.00 0.00 38 1007.0
20260506025816 75 323 6.0 11.0 0.00 0.00 0.00 37 1007.0
20260506025727 75 325 7.0 11.0 0.00 0.00 0.00 37 1007.0
20260506025623 75 320 8.0 11.0 0.00 0.00 0.00 37 1007.0
20260506025521 75 312 7.0 11.0 0.00 0.00 0.00 37 1007.0
20260506025445 75 315 5.0 9.0 0.00 0.00 0.00 38 1007.0
20260506025330 75 309 4.0 9.0 0.00 0.00 0.00 37 1007.0
20260506025230 75 297 5.0 9.0 0.00 0.00 0.00 37 1007.0
20260506025125 75 310 5.0 9.0 0.00 0.00 0.00 37 1007.0
20260506025016 76 306 6.0 11.0 0.00 0.00 0.00 37 1007.0
20260506024914 76 310 5.0 11.0 0.00 0.00 0.00 37 1006.9
20260506024819 76 298 4.0 11.0 0.00 0.00 0.00 37 1006.9
20260506024748 76 298 3.0 11.0 0.00 0.00 0.00 37 1006.9
20260506024621 76 298 4.0 11.0 0.00 0.00 0.00 37 1007.0
20260506024547 76 319 4.0 11.0 0.00 0.00 0.00 37 1006.9
20260506024423 76 308 6.0 11.0 0.00 0.00 0.00 37 1006.9
20260506024320 76 308 6.0 11.0 0.00 0.00 0.00 37 1006.9
20260506024230 76 313 5.0 11.0 0.00 0.00 0.00 37 1006.9
20260506024158 76 289 5.0 11.0 0.00 0.00 0.00 36 1006.9
20260506024012 76 330 6.0 9.0 0.00 0.00 0.00 36 1006.9
20260506023938 76 331 6.0 9.0 0.00 0.00 0.00 36 1006.9
20260506023814 76 306 5.0 9.0 0.00 0.00 0.00 36 1006.9
20260506023741 76 289 5.0 9.0 0.00 0.00 0.00 36 1006.9
20260506023615 76 299 5.0 9.0 0.00 0.00 0.00 36 1006.9
20260506023526 76 298 5.0 10.0 0.00 0.00 0.00 36 1006.9
20260506023424 76 305 6.0 10.0 0.00 0.00 0.00 36 1006.9
20260506023321 77 306 6.0 10.0 0.00 0.00 0.00 36 1006.8
20260506023225 77 312 5.0 10.0 0.00 0.00 0.00 36 1006.8
20260506023150 77 312 5.0 10.0 0.00 0.00 0.00 36 1006.8
20260506023025 77 302 5.0 10.0 0.00 0.00 0.00 36 1006.8
20260506022951 77 308 6.0 10.0 0.00 0.00 0.00 35 1006.8
20260506022827 77 307 7.0 10.0 0.00 0.00 0.00 35 1006.8
20260506022739 77 302 6.0 10.0 0.00 0.00 0.00 35 1006.8
20260506022614 77 305 6.0 10.0 0.00 0.00 0.00 35 1006.7
20260506022541 77 306 6.0 11.0 0.00 0.00 0.00 35 1006.7
20260506022418 77 303 5.0 11.0 0.00 0.00 0.00 35 1006.7
20260506022315 77 312 4.0 11.0 0.00 0.00 0.00 35 1006.7
20260506022215 78 282 5.0 11.0 0.00 0.00 0.00 34 1006.7
20260506022123 78 331 5.0 11.0 0.00 0.00 0.00 34 1006.7
20260506022020 78 320 5.0 11.0 0.00 0.00 0.00 34 1006.7
20260506021918 78 304 5.0 11.0 0.00 0.00 0.00 34 1006.7
20260506021833 78 305 6.0 11.0 0.00 0.00 0.00 34 1006.7
20260506021729 78 356 8.0 11.0 0.00 0.00 0.00 34 1006.7
20260506021628 78 325 8.0 11.0 0.00 0.00 0.00 34 1006.7
20260506021552 78 302 8.0 16.0 0.00 0.00 0.00 34 1006.8
20260506021441 78 296 8.0 20.0 0.00 0.00 0.00 34 1006.7
20260506021318 78 321 6.0 20.0 0.00 0.00 0.00 34 1006.7
20260506021214 78 264 7.0 20.0 0.00 0.00 0.00 34 1006.7
20260506021118 78 298 6.0 20.0 0.00 0.00 0.00 33 1006.7
20260506021015 78 310 7.0 20.0 0.00 0.00 0.00 33 1006.7
20260506020921 78 308 7.0 20.0 0.00 0.00 0.00 33 1006.7
20260506020816 78 312 7.0 20.0 0.00 0.00 0.00 33 1006.7
20260506020729 78 352 9.0 20.0 0.00 0.00 0.00 33 1006.7
20260506020622 78 15 10.0 20.0 0.00 0.00 0.00 33 1006.5
20260506020549 78 10 6.0 13.0 0.00 0.00 0.00 31 1006.5
20260506020424 78 52 4.0 9.0 0.00 0.00 0.00 31 1006.6
20260506020327 78 10 4.0 9.0 0.00 0.00 0.00 31 1006.6
20260506020225 78 30 3.0 10.0 0.00 0.00 0.00 31 1006.6
20260506020153 78 71 2.0 10.0 0.00 0.00 0.00 31 1006.6
20260506020028 78 30 4.0 10.0 0.00 0.00 0.00 31 1006.6
20260506015937 78 15 5.0 10.0 0.00 0.00 0.00 31 1006.6
20260506015840 78 20 5.0 10.0 0.00 0.00 0.00 31 1006.6
20260506015739 79 40 4.0 10.0 0.00 0.00 0.00 31 1006.6
20260506015613 79 34 2.0 10.0 0.00 0.00 0.00 31 1006.6
20260506015539 79 40 4.0 10.0 0.00 0.00 0.00 31 1006.6
20260506015423 79 27 5.0 10.0 0.00 0.00 0.00 31 1006.6
20260506015320 79 15 5.0 10.0 0.00 0.00 0.00 31 1006.6
20260506015221 79 38 6.0 10.0 0.00 0.00 0.00 30 1006.6
20260506015130 79 21 6.0 10.0 0.00 0.00 0.00 30 1006.6
20260506015026 79 10 6.0 10.0 0.00 0.00 0.00 30 1006.6
20260506014923 79 50 5.0 9.0 0.00 0.00 0.00 30 1006.6
20260506014828 79 21 4.0 9.0 0.00 0.00 0.00 30 1006.6
20260506014725 79 38 3.0 9.0 0.00 0.00 0.00 30 1006.6
20260506014633 79 48 5.0 9.0 0.00 0.00 0.00 30 1006.6
20260506014514 79 353 5.0 9.0 0.00 0.00 0.00 30 1006.6
20260506014440 79 23 4.0 9.0 0.00 0.00 0.00 30 1006.6
20260506014318 79 24 5.0 9.0 0.00 0.00 0.00 30 1006.5
20260506014217 79 357 4.0 10.0 0.00 0.00 0.00 30 1006.5
20260506014141 79 67 4.0 10.0 0.00 0.00 0.00 30 1006.5
20260506014022 79 15 4.0 10.0 0.00 0.00 0.00 31 1006.5
20260506013916 79 5 4.0 12.0 0.00 0.00 0.00 30 1006.5
20260506013813 79 69 4.0 12.0 0.00 0.00 0.00 31 1006.5
20260506013744 79 43 3.0 12.0 0.00 0.00 0.00 31 1006.5
20260506013647 79 15 4.0 12.0 0.00 0.00 0.00 31 1006.5
20260506013524 79 10 4.0 12.0 0.00 0.00 0.00 30 1006.5
20260506013430 79 5 6.0 12.0 0.00 0.00 0.00 30 1006.5
20260506013325 79 337 7.0 12.0 0.00 0.00 0.00 30 1006.5
20260506013230 79 40 6.0 12.0 0.00 0.00 0.00 30 1006.5
20260506013128 79 5 6.0 13.0 0.00 0.00 0.00 30 1006.5
20260506013054 79 15 5.0 13.0 0.00 0.00 0.00 31 1006.5
20260506012913 79 33 3.0 13.0 0.00 0.00 0.00 30 1006.5
20260506012839 79 51 3.0 13.0 0.00 0.00 0.00 30 1006.5
20260506012735 79 29 5.0 13.0 0.00 0.00 0.00 30 1006.5
20260506012642 79 34 6.0 13.0 0.00 0.00 0.00 30 1006.5
20260506012518 79 10 7.0 13.0 0.00 0.00 0.00 30 1006.5
20260506012414 79 46 8.0 13.0 0.00 0.00 0.00 30 1006.5
20260506012325 80 19 7.0 13.0 0.00 0.00 0.00 30 1006.4
20260506012221 80 37 5.0 13.0 0.00 0.00 0.00 29 1006.4
20260506012128 80 335 5.0 13.0 0.00 0.00 0.00 29 1006.4
20260506012025 80 333 6.0 13.0 0.00 0.00 0.00 29 1006.4
20260506011952 80 347 7.0 13.0 0.00 0.00 0.00 29 1006.4
20260506011828 80 23 7.0 13.0 0.00 0.00 0.00 30 1006.5
20260506011735 80 19 5.0 14.0 0.00 0.00 0.00 29 1006.4
20260506011613 80 15 5.0 14.0 0.00 0.00 0.00 29 1006.4
20260506011539 80 19 5.0 14.0 0.00 0.00 0.00 29 1006.4
20260506011434 80 10 6.0 14.0 0.00 0.00 0.00 30 1006.5
20260506011339 80 10 7.0 14.0 0.00 0.00 0.00 30 1006.5
20260506011216 80 15 6.0 14.0 0.00 0.00 0.00 30 1006.5
20260506011119 80 351 6.0 14.0 0.00 0.00 0.00 30 1006.5
20260506011017 80 15 9.0 14.0 0.00 0.00 0.00 30 1006.5
20260506010924 81 44 9.0 14.0 0.00 0.00 0.00 30 1006.5
20260506010824 81 5 7.0 14.0 0.00 0.00 0.00 29 1006.5
20260506010731 81 66 6.0 12.0 0.00 0.00 0.00 29 1006.5
20260506010631 81 34 4.0 12.0 0.00 0.00 0.00 29 1006.5
20260506010533 81 59 4.0 12.0 0.00 0.00 0.00 30 1006.4
20260506010431 81 39 5.0 12.0 0.00 0.00 0.00 29 1006.4
20260506010328 81 42 5.0 12.0 0.00 0.00 0.00 30 1006.4
20260506010220 81 44 4.0 12.0 0.00 0.00 0.00 29 1006.4
20260506010115 81 350 5.0 12.0 0.00 0.00 0.00 29 1006.4
20260506010013 81 79 6.0 12.0 0.00 0.00 0.00 29 1006.4
20260506005920 81 32 6.0 13.0 0.00 0.00 0.00 29 1006.4
20260506005818 81 22 5.0 13.0 0.00 0.00 0.00 29 1006.4
20260506005725 81 5 4.0 13.0 0.00 0.00 0.00 29 1006.4
20260506005620 81 33 5.0 13.0 0.00 0.00 0.00 30 1006.4
20260506005529 81 29 4.0 13.0 0.00 0.00 0.00 30 1006.4
20260506005427 81 38 4.0 13.0 0.00 0.00 0.00 29 1006.4
20260506005334 81 30 6.0 13.0 0.00 0.00 0.00 29 1006.4
20260506005229 81 337 8.0 13.0 0.00 0.00 0.00 29 1006.4
20260506005138 81 28 9.0 13.0 0.00 0.00 0.00 29 1006.4
20260506005040 81 333 8.0 13.0 0.00 0.00 0.00 30 1006.4
20260506004937 81 329 5.0 14.0 0.00 0.00 0.00 30 1006.4
20260506004814 81 326 5.0 14.0 0.00 0.00 0.00 30 1006.4
20260506004725 81 331 5.0 14.0 0.00 0.00 0.00 30 1006.4
20260506004619 81 306 6.0 14.0 0.00 0.00 0.00 30 1006.4
20260506004524 81 315 7.0 14.0 0.00 0.00 0.00 30 1006.3
20260506004419 81 353 5.0 14.0 0.00 0.00 0.00 30 1006.3
20260506004326 81 26 6.0 14.0 0.00 0.00 0.00 30 1006.3
20260506004222 81 38 9.0 14.0 0.00 0.00 0.00 30 1006.3
20260506004130 81 20 10.0 14.0 0.00 0.00 0.00 30 1006.3
20260506004035 81 15 10.0 14.0 0.00 0.00 0.00 30 1006.3
20260506003912 81 10 6.0 14.0 0.00 0.00 0.00 30 1006.3
20260506003829 81 349 4.0 14.0 0.00 0.00 0.00 31 1006.3
20260506003737 81 42 4.0 14.0 0.00 0.00 0.00 30 1006.2
20260506003612 81 38 6.0 14.0 0.00 0.00 0.00 30 1006.2
20260506003517 81 29 8.0 14.0 0.00 0.00 0.00 30 1006.3
20260506003414 80 27 8.0 14.0 0.00 0.00 0.00 31 1006.2
20260506003344 80 356 5.0 13.0 0.00 0.00 0.00 31 1006.3
20260506003221 80 21 4.0 13.0 0.00 0.00 0.00 30 1006.2
20260506003150 80 337 5.0 13.0 0.00 0.00 0.00 30 1006.2
20260506003024 80 10 5.0 13.0 0.00 0.00 0.00 30 1006.3
20260506002930 81 328 5.0 13.0 0.00 0.00 0.00 30 1006.3
20260506002856 81 325 7.0 13.0 0.00 0.00 0.00 30 1006.3
20260506002714 81 353 7.0 13.0 0.00 0.00 0.00 30 1006.4
20260506002613 81 348 8.0 13.0 0.00 0.00 0.00 30 1006.4
20260506002538 81 44 8.0 13.0 0.00 0.00 0.00 31 1006.4
20260506002416 81 15 7.0 12.0 0.00 0.00 0.00 30 1006.3
20260506002313 81 15 4.0 12.0 0.00 0.00 0.00 30 1006.3
20260506002220 81 337 4.0 12.0 0.00 0.00 0.00 30 1006.3
20260506002115 81 346 6.0 12.0 0.00 0.00 0.00 30 1006.3
20260506002020 81 5 6.0 12.0 0.00 0.00 0.00 30 1006.3
20260506001921 81 339 7.0 12.0 0.00 0.00 0.00 29 1006.3
20260506001828 81 357 8.0 12.0 0.00 0.00 0.00 29 1006.3
20260506001723 81 331 6.0 12.0 0.00 0.00 0.00 29 1006.3
20260506001631 82 312 4.0 12.0 0.00 0.00 0.00 29 1006.3
20260506001527 82 15 4.0 12.0 0.00 0.00 0.00 29 1006.3
20260506001431 82 350 5.0 12.0 0.00 0.00 0.00 29 1006.2
20260506001328 82 344 6.0 12.0 0.00 0.00 0.00 28 1006.2
20260506001239 82 29 5.0 12.0 0.00 0.00 0.00 29 1006.2
20260506001115 82 15 4.0 12.0 0.00 0.00 0.00 29 1006.2
20260506001012 82 50 5.0 12.0 0.00 0.00 0.00 29 1006.3
20260506000918 82 15 6.0 12.0 0.00 0.00 0.00 29 1006.3
20260506000815 82 15 5.0 12.0 0.00 0.00 0.00 29 1006.3
20260506000743 82 30 3.0 12.0 0.00 0.00 0.00 30 1006.2
20260506000618 82 102 2.0 12.0 0.00 0.00 0.00 29 1006.2
20260506000528 82 46 3.0 12.0 0.00 0.00 0.00 29 1006.2
20260506000425 82 66 5.0 12.0 0.00 0.00 0.00 30 1006.2
20260506000332 82 54 7.0 12.0 0.00 0.00 0.00 30 1006.2
20260506000229 82 45 5.0 12.0 0.00 0.00 0.00 30 1006.2
20260506000136 82 51 3.0 12.0 0.00 0.00 0.00 29 1006.2
20260506000032 82 53 2.0 10.0 0.00 0.00 0.00 29 1006.3
20260505235959 82 53 3.0 10.0 0.00 0.00 0.00 29 1006.2
20260505235820 82 27 2.0 10.0 0.00 0.00 0.00 29 1006.3
20260505235719 82 1 3.0 13.0 0.00 0.00 0.00 29 1006.2
20260505235624 82 44 4.0 13.0 0.00 0.00 0.00 30 1006.3
20260505235522 82 33 5.0 13.0 0.00 0.00 0.00 29 1006.3
20260505235449 82 354 4.0 13.0 0.00 0.00 0.00 29 1006.3
20260505235324 82 10 5.0 13.0 0.00 0.00 0.00 29 1006.2
20260505235230 82 19 6.0 13.0 0.00 0.00 0.00 30 1006.2
20260505235133 82 352 6.0 13.0 0.00 0.00 0.00 29 1006.2
20260505235026 82 21 7.0 14.0 0.00 0.00 0.00 29 1006.3
20260505234928 82 26 8.0 14.0 0.00 0.00 0.00 29 1006.3
20260505234855 82 50 8.0 17.0 0.00 0.00 0.00 29 1006.4
20260505234730 82 15 8.0 17.0 0.00 0.00 0.00 29 1006.4
20260505234629 82 22 6.0 17.0 0.00 0.00 0.00 29 1006.4
20260505234515 82 23 4.0 17.0 0.00 0.00 0.00 29 1006.3
20260505234412 82 356 5.0 17.0 0.00 0.00 0.00 29 1006.4
20260505234339 82 19 7.0 17.0 0.00 0.00 0.00 29 1006.4
20260505234217 82 43 8.0 17.0 0.00 0.00 0.00 29 1006.4
20260505234113 82 39 10.0 17.0 0.00 0.00 0.00 29 1006.4
20260505234017 82 28 10.0 17.0 0.00 0.00 0.00 29 1006.4
20260505233913 82 15 7.0 16.0 0.00 0.00 0.00 29 1006.3
20260505233823 82 48 5.0 13.0 0.00 0.00 0.00 29 1006.3
20260505233752 82 67 6.0 13.0 0.00 0.00 0.00 29 1006.3
20260505233626 82 38 8.0 13.0 0.00 0.00 0.00 29 1006.4
20260505233550 82 5 7.0 13.0 0.00 0.00 0.00 29 1006.4
20260505233427 82 356 8.0 13.0 0.00 0.00 0.00 29 1006.3
20260505233333 82 356 7.0 13.0 0.00 0.00 0.00 30 1006.4
20260505233229 82 351 5.0 13.0 0.00 0.00 0.00 30 1006.4
20260505233122 82 339 4.0 13.0 0.00 0.00 0.00 30 1006.4
20260505233032 82 23 3.0 13.0 0.00 0.00 0.00 29 1006.4
20260505232929 82 51 2.0 13.0 0.00 0.00 0.00 29 1006.4
20260505232834 82 51 3.0 14.0 0.00 0.00 0.00 29 1006.4
20260505232747 82 67 4.0 15.0 0.00 0.00 0.00 29 1006.4
20260505232631 82 44 6.0 15.0 0.00 0.00 0.00 29 1006.4
20260505232551 82 72 8.0 15.0 0.00 0.00 0.00 29 1006.4
20260505232421 82 35 8.0 15.0 0.00 0.00 0.00 29 1006.5
20260505232340 82 20 8.0 15.0 0.00 0.00 0.00 29 1006.5
20260505232236 82 331 8.0 15.0 0.00 0.00 0.00 29 1006.4
20260505232137 82 5 9.0 15.0 0.00 0.00 0.00 29 1006.5
20260505232021 82 357 9.0 15.0 0.00 0.00 0.00 29 1006.4
20260505231925 82 351 9.0 15.0 0.00 0.00 0.00 29 1006.4
20260505231830 82 10 6.0 14.0 0.00 0.00 0.00 30 1006.4
20260505231728 82 50 6.0 14.0 0.00 0.00 0.00 29 1006.4
20260505231623 82 31 7.0 14.0 0.00 0.00 0.00 29 1006.3
20260505231529 82 61 7.0 13.0 0.00 0.00 0.00 28 1006.3
20260505231426 82 83 8.0 13.0 0.00 0.00 0.00 29 1006.4
20260505231335 82 360 7.0 12.0 0.00 0.00 0.00 28 1006.4
20260505231231 82 19 6.0 12.0 0.00 0.00 0.00 28 1006.4
20260505231138 82 323 6.0 12.0 0.00 0.00 0.00 28 1006.4
20260505231034 82 10 5.0 12.0 0.00 0.00 0.00 28 1006.5
20260505230939 82 10 4.0 14.0 0.00 0.00 0.00 29 1006.5
20260505230816 82 15 5.0 14.0 0.00 0.00 0.00 28 1006.5
20260505230717 82 333 6.0 14.0 0.00 0.00 0.00 28 1006.5
20260505230622 82 23 6.0 14.0 0.00 0.00 0.00 28 1006.5
20260505230518 82 25 8.0 14.0 0.00 0.00 0.00 29 1006.5
20260505230424 82 33 7.0 14.0 0.00 0.00 0.00 29 1006.5
20260505230316 82 36 6.0 14.0 0.00 0.00 0.00 28 1006.5
20260505230224 82 15 8.0 14.0 0.00 0.00 0.00 28 1006.5
20260505230126 82 345 8.0 14.0 0.00 0.00 0.00 28 1006.5
20260505230044 82 5 7.0 14.0 0.00 0.00 0.00 29 1006.5
20260505225927 82 51 7.0 14.0 0.00 0.00 0.00 29 1006.5
20260505225829 82 19 5.0 14.0 0.00 0.00 0.00 29 1006.5
20260505225734 82 27 5.0 14.0 0.00 0.00 0.00 28 1006.5
20260505225632 82 63 5.0 14.0 0.00 0.00 0.00 28 1006.5
20260505225536 82 36 5.0 14.0 0.00 0.00 0.00 28 1006.5
20260505225412 82 69 10.0 14.0 0.00 0.00 0.00 30 1006.6
20260505225328 82 61 11.0 14.0 0.00 0.00 0.00 29 1006.6
20260505225242 82 71 10.0 14.0 0.00 0.00 0.00 29 1006.6
20260505225113 83 37 7.0 15.0 0.00 0.00 0.00 29 1006.5
20260505225040 83 358 6.0 15.0 0.00 0.00 0.00 29 1006.5
20260505224916 83 26 4.0 15.0 0.00 0.00 0.00 29 1006.5
20260505224813 83 63 6.0 15.0 0.00 0.00 0.00 29 1006.5
20260505224722 83 63 8.0 15.0 0.00 0.00 0.00 29 1006.6
20260505224622 83 59 8.0 15.0 0.00 0.00 0.00 29 1006.6
20260505224517 83 355 7.0 15.0 0.00 0.00 0.00 30 1006.6
20260505224419 83 65 9.0 15.0 0.00 0.00 0.00 30 1006.6
20260505224325 83 59 9.0 15.0 0.00 0.00 0.00 29 1006.6
20260505224242 83 23 6.0 15.0 0.00 0.00 0.00 29 1006.6
20260505224126 83 55 5.0 15.0 0.00 0.00 0.00 29 1006.6
20260505224019 83 36 4.0 18.0 0.00 0.00 0.00 29 1006.6
20260505223926 83 102 4.0 18.0 0.00 0.00 0.00 29 1006.7
20260505223825 83 19 5.0 18.0 0.00 0.00 0.00 28 1006.6
20260505223722 83 38 5.0 18.0 0.00 0.00 0.00 29 1006.7
20260505223626 83 10 4.0 18.0 0.00 0.00 0.00 29 1006.7
20260505223520 83 356 5.0 18.0 0.00 0.00 0.00 28 1006.6
20260505223445 83 356 8.0 18.0 0.00 0.00 0.00 29 1006.6
20260505223408 83 19 9.0 18.0 0.00 0.00 0.00 29 1006.7
20260505223304 83 21 8.0 18.0 0.00 0.00 0.00 29 1006.6
20260505223121 83 25 5.0 12.0 0.00 0.00 0.00 29 1006.6
20260505223037 83 10 5.0 11.0 0.00 0.00 0.00 29 1006.6
20260505222941 83 42 6.0 11.0 0.00 0.00 0.00 29 1006.6
20260505222826 83 212 5.0 11.0 0.00 0.00 0.00 29 1006.6
20260505222723 83 60 4.0 11.0 0.00 0.00 0.00 30 1006.6
20260505222619 83 71 4.0 11.0 0.00 0.00 0.00 31 1006.6
20260505222526 82 95 4.0 11.0 0.00 0.00 0.00 31 1006.6
20260505222431 82 81 4.0 11.0 0.00 0.00 0.00 30 1006.6
20260505222312 82 61 4.0 11.0 0.00 0.00 0.00 30 1006.7
20260505222241 82 67 5.0 11.0 0.00 0.00 0.00 30 1006.7
20260505222116 82 44 4.0 12.0 0.00 0.00 0.00 30 1006.7
20260505222034 82 106 3.0 12.0 0.00 0.00 0.00 30 1006.7
20260505221920 82 46 4.0 12.0 0.00 0.00 0.00 30 1006.7
20260505221818 82 357 5.0 12.0 0.00 0.00 0.00 30 1006.7
20260505221723 82 51 6.0 12.0 0.00 0.00 0.00 29 1006.7
20260505221622 82 5 5.0 12.0 0.00 0.00 0.00 30 1006.7
20260505221519 82 30 6.0 12.0 0.00 0.00 0.00 29 1006.7
20260505221426 82 15 8.0 12.0 0.00 0.00 0.00 28 1006.7
20260505221323 82 345 8.0 12.0 0.00 0.00 0.00 28 1006.7
20260505221232 82 5 7.0 12.0 0.00 0.00 0.00 28 1006.7
20260505221126 82 341 6.0 12.0 0.00 0.00 0.00 28 1006.7
20260505221026 82 5 7.0 14.0 0.00 0.00 0.00 27 1006.7
20260505220913 82 15 6.0 14.0 0.00 0.00 0.00 28 1006.8
20260505220830 82 54 5.0 14.0 0.00 0.00 0.00 27 1006.8
20260505220734 82 73 4.0 14.0 0.00 0.00 0.00 29 1006.8
20260505220643 82 46 5.0 14.0 0.00 0.00 0.00 29 1006.8
20260505220517 82 69 4.0 14.0 0.00 0.00 0.00 28 1006.8
20260505220414 82 10 3.0 14.0 0.00 0.00 0.00 27 1006.8
20260505220315 82 355 6.0 14.0 0.00 0.00 0.00 27 1006.8
20260505220242 82 325 7.0 14.0 0.00 0.00 0.00 27 1006.9
20260505220125 82 44 6.0 14.0 0.00 0.00 0.00 27 1006.8
20260505220021 82 66 3.0 10.0 0.00 0.00 0.00 27 1006.8
20260505215926 82 92 4.0 10.0 0.00 0.00 0.00 28 1006.8
20260505215823 82 40 4.0 10.0 0.00 0.00 0.00 28 1006.8
20260505215749 82 96 4.0 10.0 0.00 0.00 0.00 28 1006.8
20260505215636 82 23 4.0 10.0 0.00 0.00 0.00 28 1006.8
20260505215535 82 327 4.0 10.0 0.00 0.00 0.00 28 1006.9
20260505215420 82 60 5.0 10.0 0.00 0.00 0.00 29 1006.9
20260505215336 82 92 5.0 10.0 0.00 0.00 0.00 28 1006.9
20260505215223 82 51 4.0 11.0 0.00 0.00 0.00 27 1006.9
20260505215119 82 46 3.0 11.0 0.00 0.00 0.00 30 1006.9
20260505215014 82 31 3.0 11.0 0.00 0.00 0.00 29 1006.9
20260505214921 82 32 4.0 11.0 0.00 0.00 0.00 29 1006.9
20260505214822 82 48 5.0 11.0 0.00 0.00 0.00 30 1006.9
20260505214730 82 77 4.0 11.0 0.00 0.00 0.00 30 1006.9
20260505214626 81 51 3.0 11.0 0.00 0.00 0.00 30 1006.8
20260505214531 81 70 4.0 11.0 0.00 0.00 0.00 29 1006.9
20260505214429 81 15 6.0 11.0 0.00 0.00 0.00 30 1006.9
20260505214327 81 53 5.0 11.0 0.00 0.00 0.00 29 1006.9
20260505214219 81 332 4.0 11.0 0.00 0.00 0.00 30 1006.9
20260505214112 81 30 6.0 11.0 0.00 0.00 0.00 30 1006.9
20260505214039 81 69 5.0 12.0 0.00 0.00 0.00 29 1006.9
20260505213916 81 52 7.0 13.0 0.00 0.00 0.00 31 1006.9
20260505213814 81 20 6.0 13.0 0.00 0.00 0.00 30 1007.0
20260505213742 81 36 4.0 13.0 0.00 0.00 0.00 30 1006.9
20260505213617 81 31 4.0 13.0 0.00 0.00 0.00 30 1006.9
20260505213528 81 35 4.0 13.0 0.00 0.00 0.00 30 1006.9
20260505213446 81 15 6.0 13.0 0.00 0.00 0.00 30 1006.9
20260505213330 81 355 7.0 13.0 0.00 0.00 0.00 31 1006.9
20260505213228 81 10 8.0 13.0 0.00 0.00 0.00 30 1006.9
20260505213135 81 19 8.0 13.0 0.00 0.00 0.00 30 1006.9
20260505213031 81 334 7.0 13.0 0.00 0.00 0.00 31 1006.9
20260505212938 81 23 6.0 13.0 0.00 0.00 0.00 31 1007.0
20260505212818 81 77 6.0 13.0 0.00 0.00 0.00 32 1007.0
20260505212716 81 29 5.0 13.0 0.00 0.00 0.00 33 1007.0
20260505212612 80 15 3.0 13.0 0.00 0.00 0.00 32 1006.9
20260505212517 80 349 6.0 12.0 0.00 0.00 0.00 32 1007.0
20260505212422 80 34 7.0 12.0 0.00 0.00 0.00 32 1007.0